Time,TemperatureF,DewpointF,PressureIn,WindDirection,WindDirectionDegrees,WindSpeedMPH,WindSpeedGustMPH,Humidity,HourlyPrecipIn,Conditions,Clouds,dailyrainin,SoftwareType,DateUTC
2013-08-14 00:00:00,46.0,46.0,30.10,ENE,64,0.0,0.0,100,0.00,,CLR,0.00,VWS V12.07,2013-08-14 05:00:00,
2013-08-14 00:02:00,46.0,46.0,30.10,ENE,64,0.0,0.0,100,0.00,,CLR,0.00,VWS V12.07,2013-08-14 05:02:00,
2013-08-14 00:04:00,45.8,45.8,30.10,ENE,64,0.0,0.0,100,0.00,,CLR,0.00,VWS V12.07,2013-08-14 05:04:00,
2013-08-14 00:06:00,45.8,45.5,30.10,ENE,64,0.0,0.0,99,0.00,,CLR,0.00,VWS V12.07,2013-08-14 05:06:00,
2013-08-14 00:07:00,45.7,45.7,30.10,ENE,64,0.0,0.0,100,0.00,,CLR,0.00,VWS V12.07,2013-08-14 05:07:00,
2013-08-14 00:09:00,45.7,45.7,30.10,ENE,64,0.0,0.0,100,0.00,,CLR,0.00,VWS V12.07,2013-08-14 05:09:00,
2013-08-14 00:10:00,45.7,45.7,30.10,ENE,64,0.0,0.0,100,0.00,,CLR,0.00,VWS V12.07,2013-08-14 05:10:00,
2013-08-14 00:11:00,45.7,45.7,30.10,ENE,64,0.0,0.0,100,0.00,,CLR,0.00,VWS V12.07,2013-08-14 05:11:00,
2013-08-14 00:13:00,45.7,45.7,30.11,ENE,64,0.0,0.0,100,0.00,,CLR,0.00,VWS V12.07,2013-08-14 05:13:00,
2013-08-14 00:14:00,45.7,45.7,30.11,ENE,64,0.0,0.0,100,0.00,,CLR,0.00,VWS V12.07,2013-08-14 05:14:00,
2013-08-14 00:15:00,45.5,45.5,30.11,ENE,64,0.0,0.0,100,0.00,,CLR,0.00,VWS V12.07,2013-08-14 05:15:00,
2013-08-14 00:16:00,45.5,45.5,30.11,ENE,64,0.0,0.0,100,0.00,,CLR,0.00,VWS V12.07,2013-08-14 05:16:00,
2013-08-14 00:18:00,45.5,45.5,30.11,ENE,64,0.0,0.0,100,0.00,,CLR,0.00,VWS V12.07,2013-08-14 05:18:00,
2013-08-14 00:19:00,45.5,45.5,30.11,ENE,64,0.0,0.0,100,0.00,,CLR,0.00,VWS V12.07,2013-08-14 05:19:00,
2013-08-14 00:20:00,45.4,45.4,30.11,ENE,64,0.0,0.0,100,0.00,,CLR,0.00,VWS V12.07,2013-08-14 05:20:00,
2013-08-14 00:21:00,45.4,45.4,30.11,ENE,64,0.0,0.0,100,0.00,,CLR,0.00,VWS V12.07,2013-08-14 05:21:00,
2013-08-14 00:24:00,45.4,45.4,30.11,ENE,64,0.0,0.0,100,0.00,,CLR,0.00,VWS V12.07,2013-08-14 05:24:00,
2013-08-14 00:25:00,45.4,45.4,30.11,ENE,64,0.0,0.0,100,0.00,,CLR,0.00,VWS V12.07,2013-08-14 05:25:00,
2013-08-14 00:26:00,45.4,45.4,30.11,ENE,64,0.0,0.0,100,0.00,,CLR,0.00,VWS V12.07,2013-08-14 05:26:00,
2013-08-14 00:29:00,45.4,45.4,30.12,ENE,64,0.0,0.0,100,0.00,,CLR,0.00,VWS V12.07,2013-08-14 05:29:00,
2013-08-14 00:30:00,45.4,45.4,30.12,ENE,64,0.0,0.0,100,0.00,,CLR,0.00,VWS V12.07,2013-08-14 05:30:00,
2013-08-14 00:31:00,45.2,45.2,30.12,ENE,64,0.0,0.0,100,0.00,,CLR,0.00,VWS V12.07,2013-08-14 05:31:00,
2013-08-14 00:33:00,45.2,45.2,30.12,ENE,64,0.0,0.0,100,0.00,,CLR,0.00,VWS V12.07,2013-08-14 05:33:00,
2013-08-14 00:34:00,45.2,45.2,30.12,ENE,64,0.0,0.0,100,0.00,,CLR,0.00,VWS V12.07,2013-08-14 05:34:00,
2013-08-14 00:35:00,45.2,45.2,30.12,ENE,64,0.0,0.0,100,0.00,,CLR,0.00,VWS V12.07,2013-08-14 05:35:00,
2013-08-14 00:36:00,45.2,45.2,30.12,ENE,64,0.0,0.0,100,0.00,,CLR,0.00,VWS V12.07,2013-08-14 05:36:00,
2013-08-14 00:37:00,45.1,45.1,30.12,ENE,64,0.0,0.0,100,0.00,,CLR,0.00,VWS V12.07,2013-08-14 05:37:00,
2013-08-14 00:38:00,45.1,45.1,30.12,ENE,64,0.0,0.0,100,0.00,,CLR,0.00,VWS V12.07,2013-08-14 05:38:00,
2013-08-14 00:39:00,45.1,45.1,30.12,ENE,64,0.0,0.0,100,0.00,,CLR,0.00,VWS V12.07,2013-08-14 05:39:00,
2013-08-14 00:40:00,45.1,45.1,30.12,ENE,64,0.0,0.0,100,0.00,,CLR,0.00,VWS V12.07,2013-08-14 05:40:00,
2013-08-14 00:42:00,44.9,44.9,30.12,ENE,64,0.0,0.0,100,0.00,,CLR,0.00,VWS V12.07,2013-08-14 05:42:00,
2013-08-14 00:43:00,44.9,44.9,30.12,ENE,64,0.0,0.0,100,0.00,,CLR,0.00,VWS V12.07,2013-08-14 05:43:00,
2013-08-14 00:44:00,44.9,44.9,30.12,ENE,64,0.0,0.0,100,0.00,,CLR,0.00,VWS V12.07,2013-08-14 05:44:00,
2013-08-14 00:47:00,44.9,44.9,30.12,ENE,64,0.0,0.0,100,0.00,,CLR,0.00,VWS V12.07,2013-08-14 05:47:00,
2013-08-14 00:48:00,44.9,44.9,30.12,ENE,64,0.0,0.0,100,0.00,,CLR,0.00,VWS V12.07,2013-08-14 05:48:00,
2013-08-14 00:50:00,44.9,44.9,30.12,ENE,64,0.0,0.0,100,0.00,,,0.00,VWS V12.07,2013-08-14 05:50:00,
2013-08-14 00:52:00,44.9,44.9,30.12,ENE,64,0.0,0.0,100,0.00,,,0.00,VWS V12.07,2013-08-14 05:52:00,
2013-08-14 00:53:00,44.9,44.9,30.12,ENE,64,0.0,0.0,100,0.00,,,0.00,VWS V12.07,2013-08-14 05:53:00,
2013-08-14 00:55:00,44.9,44.9,30.12,ENE,64,0.0,0.0,100,0.00,,,0.00,VWS V12.07,2013-08-14 05:55:00,
2013-08-14 00:57:00,44.9,44.9,30.12,ENE,64,0.0,0.0,100,0.00,,,0.00,VWS V12.07,2013-08-14 05:57:00,
2013-08-14 00:58:00,44.9,44.9,30.12,ENE,64,0.0,0.0,100,0.00,,,0.00,VWS V12.07,2013-08-14 05:58:00,
2013-08-14 01:00:00,44.8,44.8,30.12,ENE,64,0.0,0.0,100,0.00,,,0.00,VWS V12.07,2013-08-14 06:00:00,
2013-08-14 01:02:00,44.8,44.8,30.12,ENE,64,0.0,0.0,100,0.00,,,0.00,VWS V12.07,2013-08-14 06:02:00,
2013-08-14 01:03:00,44.8,44.8,30.12,ENE,64,0.0,0.0,100,0.00,,,0.00,VWS V12.07,2013-08-14 06:03:00,
2013-08-14 01:04:00,44.8,44.8,30.12,ENE,64,0.0,0.0,100,0.00,,,0.00,VWS V12.07,2013-08-14 06:04:00,
2013-08-14 01:05:00,44.8,44.8,30.12,ENE,64,0.0,0.0,100,0.00,,CLR,0.00,VWS V12.07,2013-08-14 06:05:00,
2013-08-14 01:07:00,44.8,44.8,30.12,ENE,64,0.0,0.0,100,0.00,,CLR,0.00,VWS V12.07,2013-08-14 06:07:00,
2013-08-14 01:08:00,44.8,44.8,30.12,ENE,64,0.0,0.0,100,0.00,,,0.00,VWS V12.07,2013-08-14 06:08:00,
2013-08-14 01:09:00,44.6,44.6,30.12,ENE,64,0.0,0.0,100,0.00,,,0.00,VWS V12.07,2013-08-14 06:09:00,
2013-08-14 01:10:00,44.9,44.9,30.12,ENE,64,0.0,0.0,100,0.00,,OVC050,0.00,VWS V12.07,2013-08-14 06:10:00,
2013-08-14 01:11:00,44.6,44.6,30.12,ENE,64,0.0,0.0,100,0.00,,,0.00,VWS V12.07,2013-08-14 06:11:00,
2013-08-14 01:12:00,44.6,44.6,30.11,ENE,64,0.0,0.0,100,0.00,,,0.00,VWS V12.07,2013-08-14 06:12:00,
2013-08-14 01:13:00,44.6,44.6,30.11,ENE,64,0.0,0.0,100,0.00,,,0.00,VWS V12.07,2013-08-14 06:13:00,
2013-08-14 01:14:00,44.6,44.6,30.11,ENE,64,0.0,0.0,100,0.00,,,0.00,VWS V12.07,2013-08-14 06:14:00,
2013-08-14 01:16:00,44.6,44.6,30.11,ENE,64,0.0,0.0,100,0.00,,,0.00,VWS V12.07,2013-08-14 06:16:00,
2013-08-14 01:17:00,44.6,44.6,30.11,ENE,64,0.0,0.0,100,0.00,,,0.00,VWS V12.07,2013-08-14 06:17:00,
2013-08-14 01:18:00,44.6,44.6,30.11,ENE,64,0.0,0.0,100,0.00,,,0.00,VWS V12.07,2013-08-14 06:18:00,
2013-08-14 01:19:00,44.6,44.6,30.11,ENE,64,0.0,0.0,100,0.00,,,0.00,VWS V12.07,2013-08-14 06:19:00,
2013-08-14 01:20:00,44.8,44.8,30.12,ENE,64,0.0,0.0,100,0.00,,OVC050,0.00,VWS V12.07,2013-08-14 06:20:00,
2013-08-14 01:22:00,44.8,44.8,30.11,ENE,64,0.0,0.0,100,0.00,,,0.00,VWS V12.07,2013-08-14 06:22:00,
2013-08-14 01:23:00,44.8,44.8,30.11,ENE,64,0.0,0.0,100,0.00,,,0.00,VWS V12.07,2013-08-14 06:23:00,
2013-08-14 01:24:00,44.8,44.8,30.11,ENE,64,0.0,0.0,100,0.00,,,0.00,VWS V12.07,2013-08-14 06:24:00,
2013-08-14 01:27:00,44.6,44.6,30.12,ENE,64,0.0,0.0,100,0.00,,,0.00,VWS V12.07,2013-08-14 06:27:00,
2013-08-14 01:28:00,44.6,44.6,30.12,ENE,64,0.0,0.0,100,0.00,,,0.00,VWS V12.07,2013-08-14 06:28:00,
2013-08-14 01:29:00,44.6,44.6,30.12,ENE,64,0.0,0.0,100,0.00,,,0.00,VWS V12.07,2013-08-14 06:29:00,
2013-08-14 01:30:00,44.6,44.6,30.11,ENE,64,0.0,0.0,100,0.00,,OVC050,0.00,VWS V12.07,2013-08-14 06:30:00,
2013-08-14 01:32:00,44.3,44.3,30.12,ENE,64,0.0,0.0,100,0.00,,,0.00,VWS V12.07,2013-08-14 06:32:00,
2013-08-14 01:33:00,44.3,44.3,30.12,ENE,64,0.0,0.0,100,0.00,,,0.00,VWS V12.07,2013-08-14 06:33:00,
2013-08-14 01:34:00,44.2,44.2,30.12,ENE,64,0.0,0.0,100,0.00,,,0.00,VWS V12.07,2013-08-14 06:34:00,
2013-08-14 01:38:00,43.9,43.9,30.12,ENE,64,0.0,0.0,100,0.00,,,0.00,VWS V12.07,2013-08-14 06:38:00,
2013-08-14 01:39:00,43.9,43.6,30.12,ENE,64,0.0,0.0,99,0.00,,,0.00,VWS V12.07,2013-08-14 06:39:00,
2013-08-14 01:40:00,43.8,43.5,30.12,ENE,64,0.0,0.0,99,0.00,,,0.00,VWS V12.07,2013-08-14 06:40:00,
2013-08-14 01:44:00,43.6,43.3,30.12,ENE,64,0.0,0.0,99,0.00,,,0.00,VWS V12.07,2013-08-14 06:44:00,
2013-08-14 01:45:00,43.5,43.2,30.12,ENE,64,0.0,0.0,99,0.00,,,0.00,VWS V12.07,2013-08-14 06:45:00,
2013-08-14 01:49:00,43.5,43.5,30.12,ENE,64,0.0,0.0,100,0.00,,,0.00,VWS V12.07,2013-08-14 06:49:00,
2013-08-14 01:50:00,43.5,43.5,30.12,ENE,64,0.0,0.0,100,0.00,,,0.00,VWS V12.07,2013-08-14 06:50:00,
2013-08-14 01:54:00,43.3,43.3,30.12,ENE,64,0.0,0.0,100,0.00,,,0.00,VWS V12.07,2013-08-14 06:54:00,
2013-08-14 01:55:00,43.3,43.3,30.12,ENE,64,0.0,0.0,100,0.00,,,0.00,VWS V12.07,2013-08-14 06:55:00,
2013-08-14 01:59:00,43.2,43.2,30.12,ENE,64,0.0,0.0,100,0.00,,,0.00,VWS V12.07,2013-08-14 06:59:00,
2013-08-14 02:00:00,43.2,43.2,30.12,ENE,64,0.0,0.0,100,0.00,,,0.00,VWS V12.07,2013-08-14 07:00:00,
2013-08-14 02:01:00,43.3,43.3,30.12,ENE,64,0.0,0.0,100,0.00,,,0.00,VWS V12.07,2013-08-14 07:01:00,
2013-08-14 02:04:00,43.5,43.5,30.12,ENE,64,0.0,0.0,100,0.00,,,0.00,VWS V12.07,2013-08-14 07:04:00,
2013-08-14 02:05:00,43.6,43.6,30.12,ENE,64,0.0,0.0,100,0.00,,,0.00,VWS V12.07,2013-08-14 07:05:00,
2013-08-14 02:06:00,43.6,43.6,30.12,ENE,64,0.0,0.0,100,0.00,,,0.00,VWS V12.07,2013-08-14 07:06:00,
2013-08-14 02:07:00,43.8,43.8,30.12,ENE,64,0.0,0.0,100,0.00,,,0.00,VWS V12.07,2013-08-14 07:07:00,
2013-08-14 02:09:00,44.1,44.1,30.12,ENE,64,0.0,0.0,100,0.00,,,0.00,VWS V12.07,2013-08-14 07:09:00,
2013-08-14 02:10:00,43.3,43.3,30.12,ENE,64,0.0,0.0,100,0.00,,OVC050,0.00,VWS V12.07,2013-08-14 07:10:00,
2013-08-14 02:11:00,44.1,44.1,30.12,ENE,64,0.0,0.0,100,0.00,,,0.00,VWS V12.07,2013-08-14 07:11:00,
2013-08-14 02:12:00,44.2,44.2,30.11,ENE,64,0.0,0.0,100,0.00,,,0.00,VWS V12.07,2013-08-14 07:12:00,
2013-08-14 02:15:00,44.2,44.2,30.11,ENE,64,0.0,0.0,100,0.00,,,0.00,VWS V12.07,2013-08-14 07:15:00,
2013-08-14 02:16:00,44.2,44.2,30.11,ENE,64,0.0,0.0,100,0.00,,,0.00,VWS V12.07,2013-08-14 07:16:00,
2013-08-14 02:17:00,44.2,44.2,30.11,ENE,64,0.0,0.0,100,0.00,,,0.00,VWS V12.07,2013-08-14 07:17:00,
2013-08-14 02:18:00,44.1,44.1,30.11,ENE,64,0.0,0.0,100,0.00,,,0.00,VWS V12.07,2013-08-14 07:18:00,
2013-08-14 02:20:00,43.3,43.3,30.12,ENE,64,0.0,0.0,100,0.00,,OVC050,0.00,VWS V12.07,2013-08-14 07:20:00,
2013-08-14 02:21:00,44.1,44.1,30.11,ENE,64,0.0,0.0,100,0.00,,,0.00,VWS V12.07,2013-08-14 07:21:00,
2013-08-14 02:22:00,44.1,44.1,30.11,ENE,64,0.0,0.0,100,0.00,,,0.00,VWS V12.07,2013-08-14 07:22:00,
2013-08-14 02:23:00,44.1,44.1,30.11,ENE,64,0.0,0.0,100,0.00,,,0.00,VWS V12.07,2013-08-14 07:23:00,
2013-08-14 02:26:00,43.9,43.9,30.11,ENE,64,0.0,0.0,100,0.00,,,0.00,VWS V12.07,2013-08-14 07:26:00,
2013-08-14 02:27:00,43.9,43.9,30.11,ENE,64,0.0,0.0,100,0.00,,,0.00,VWS V12.07,2013-08-14 07:27:00,
2013-08-14 02:28:00,43.9,43.9,30.11,ENE,64,0.0,0.0,100,0.00,,,0.00,VWS V12.07,2013-08-14 07:28:00,
2013-08-14 02:30:00,44.2,44.2,30.11,ENE,64,0.0,0.0,100,0.00,,OVC050,0.00,VWS V12.07,2013-08-14 07:30:00,
2013-08-14 02:31:00,43.9,43.9,30.11,ENE,64,0.0,0.0,100,0.00,,,0.00,VWS V12.07,2013-08-14 07:31:00,
2013-08-14 02:32:00,43.9,43.9,30.11,ENE,64,0.0,0.0,100,0.00,,,0.00,VWS V12.07,2013-08-14 07:32:00,
2013-08-14 02:33:00,43.9,43.9,30.11,ENE,64,0.0,0.0,100,0.00,,,0.00,VWS V12.07,2013-08-14 07:33:00,
2013-08-14 02:37:00,43.8,43.8,30.11,ENE,64,0.0,0.0,100,0.00,,,0.00,VWS V12.07,2013-08-14 07:37:00,
2013-08-14 02:38:00,43.8,43.8,30.11,ENE,64,0.0,0.0,100,0.00,,,0.00,VWS V12.07,2013-08-14 07:38:00,
2013-08-14 02:39:00,43.8,43.8,30.11,ENE,64,0.0,0.0,100,0.00,,,0.00,VWS V12.07,2013-08-14 07:39:00,
2013-08-14 02:40:00,44.1,44.1,30.11,ENE,64,0.0,0.0,100,0.00,,OVC050,0.00,VWS V12.07,2013-08-14 07:40:00,
2013-08-14 02:42:00,43.6,43.6,30.11,ENE,64,0.0,0.0,100,0.00,,,0.00,VWS V12.07,2013-08-14 07:42:00,
2013-08-14 02:43:00,43.6,43.6,30.12,ENE,64,0.0,0.0,100,0.00,,,0.00,VWS V12.07,2013-08-14 07:43:00,
2013-08-14 02:44:00,43.6,43.6,30.12,ENE,64,0.0,0.0,100,0.00,,,0.00,VWS V12.07,2013-08-14 07:44:00,
2013-08-14 02:45:00,43.6,43.6,30.12,ENE,64,0.0,0.0,100,0.00,,,0.00,VWS V12.07,2013-08-14 07:45:00,
2013-08-14 02:47:00,43.5,43.5,30.12,ENE,64,0.0,0.0,100,0.00,,,0.00,VWS V12.07,2013-08-14 07:47:00,
2013-08-14 02:49:00,43.5,43.5,30.12,ENE,64,0.0,0.0,100,0.00,,,0.00,VWS V12.07,2013-08-14 07:49:00,
2013-08-14 02:50:00,43.9,43.9,30.11,ENE,64,0.0,0.0,100,0.00,,OVC050,0.00,VWS V12.07,2013-08-14 07:50:00,
2013-08-14 02:51:00,43.6,43.6,30.12,ENE,64,0.0,0.0,100,0.00,,,0.00,VWS V12.07,2013-08-14 07:51:00,
2013-08-14 02:53:00,43.6,43.6,30.12,ENE,64,0.0,0.0,100,0.00,,,0.00,VWS V12.07,2013-08-14 07:53:00,
2013-08-14 02:54:00,43.6,43.6,30.12,ENE,64,0.0,0.0,100,0.00,,,0.00,VWS V12.07,2013-08-14 07:54:00,
2013-08-14 02:55:00,43.6,43.6,30.12,ENE,64,0.0,0.0,100,0.00,,,0.00,VWS V12.07,2013-08-14 07:55:00,
2013-08-14 02:56:00,43.6,43.6,30.12,ENE,64,0.0,0.0,100,0.00,,,0.00,VWS V12.07,2013-08-14 07:56:00,
2013-08-14 02:58:00,43.6,43.6,30.12,ENE,64,0.0,0.0,100,0.00,,,0.00,VWS V12.07,2013-08-14 07:58:00,
2013-08-14 02:59:00,43.6,43.6,30.12,ENE,64,0.0,0.0,100,0.00,,,0.00,VWS V12.07,2013-08-14 07:59:00,
2013-08-14 03:00:00,43.6,43.6,30.12,ENE,64,0.0,0.0,100,0.00,,,0.00,VWS V12.07,2013-08-14 08:00:00,
2013-08-14 03:01:00,43.6,43.6,30.12,ENE,64,0.0,0.0,100,0.00,,,0.00,VWS V12.07,2013-08-14 08:01:00,
2013-08-14 03:04:00,43.6,43.6,30.12,ENE,64,0.0,0.0,100,0.00,,,0.00,VWS V12.07,2013-08-14 08:04:00,
2013-08-14 03:05:00,43.6,43.6,30.12,ENE,64,0.0,0.0,100,0.00,,,0.00,VWS V12.07,2013-08-14 08:05:00,
2013-08-14 03:06:00,43.6,43.6,30.12,ENE,64,0.0,0.0,100,0.00,,,0.00,VWS V12.07,2013-08-14 08:06:00,
2013-08-14 03:09:00,43.6,43.6,30.12,ENE,64,0.0,0.0,100,0.00,,,0.00,VWS V12.07,2013-08-14 08:09:00,
2013-08-14 03:10:00,43.6,43.6,30.12,ENE,64,0.0,0.0,100,0.00,,,0.00,VWS V12.07,2013-08-14 08:10:00,
2013-08-14 03:11:00,43.6,43.6,30.12,ENE,64,0.0,0.0,100,0.00,,,0.00,VWS V12.07,2013-08-14 08:11:00,
2013-08-14 03:12:00,43.6,43.6,30.12,ENE,64,0.0,0.0,100,0.00,,,0.00,VWS V12.07,2013-08-14 08:12:00,
2013-08-14 03:14:00,43.6,43.6,30.12,ENE,64,0.0,0.0,100,0.00,,,0.00,VWS V12.07,2013-08-14 08:14:00,
2013-08-14 03:15:00,43.6,43.6,30.12,ENE,64,0.0,0.0,100,0.00,,,0.00,VWS V12.07,2013-08-14 08:15:00,
2013-08-14 03:16:00,43.6,43.6,30.12,ENE,64,0.0,0.0,100,0.00,,,0.00,VWS V12.07,2013-08-14 08:16:00,
2013-08-14 03:17:00,43.8,43.8,30.12,ENE,64,0.0,0.0,100,0.00,,,0.00,VWS V12.07,2013-08-14 08:17:00,
2013-08-14 03:19:00,43.8,43.8,30.12,ENE,64,0.0,0.0,100,0.00,,,0.00,VWS V12.07,2013-08-14 08:19:00,
2013-08-14 03:20:00,43.9,43.9,30.12,ENE,64,0.0,0.0,100,0.00,,,0.00,VWS V12.07,2013-08-14 08:20:00,
2013-08-14 03:21:00,43.9,43.9,30.12,ENE,64,0.0,0.0,100,0.00,,,0.00,VWS V12.07,2013-08-14 08:21:00,
2013-08-14 03:23:00,43.9,43.9,30.12,ENE,64,0.0,0.0,100,0.00,,,0.00,VWS V12.07,2013-08-14 08:23:00,
2013-08-14 03:24:00,43.9,43.9,30.12,ENE,64,0.0,0.0,100,0.00,,,0.00,VWS V12.07,2013-08-14 08:24:00,
2013-08-14 03:26:00,43.9,43.9,30.12,ENE,64,0.0,0.0,100,0.00,,,0.00,VWS V12.07,2013-08-14 08:26:00,
2013-08-14 03:30:00,43.6,43.6,30.12,ENE,64,0.0,0.0,100,0.00,,OVC050,0.00,VWS V12.07,2013-08-14 08:30:00,
2013-08-14 03:40:00,43.9,43.9,30.12,ENE,64,0.0,0.0,100,0.00,,OVC050,0.00,VWS V12.07,2013-08-14 08:40:00,
2013-08-14 03:50:00,43.9,43.9,30.12,North,0,0.0,0.0,100,0.00,,OVC050,0.00,VWS V12.07,2013-08-14 08:50:00,
2013-08-14 04:00:00,43.9,43.9,30.12,North,0,0.0,0.0,100,0.00,,OVC050,0.00,VWS V12.07,2013-08-14 09:00:00,
2013-08-14 04:10:00,43.9,43.9,30.12,North,0,0.0,0.0,100,0.00,,OVC050,0.00,VWS V12.07,2013-08-14 09:10:00,
2013-08-14 04:20:00,44.1,44.1,30.12,North,0,0.0,0.0,100,0.00,,OVC050,0.00,VWS V12.07,2013-08-14 09:20:00,
2013-08-14 04:30:00,44.1,44.1,30.12,North,0,0.0,0.0,100,0.00,,OVC050,0.00,VWS V12.07,2013-08-14 09:30:00,
2013-08-14 04:40:00,43.6,43.6,30.12,North,0,0.0,0.0,100,0.00,,OVC050,0.00,VWS V12.07,2013-08-14 09:40:00,
2013-08-14 04:50:00,43.5,43.5,30.11,North,0,0.0,0.0,100,0.00,,OVC050,0.00,VWS V12.07,2013-08-14 09:50:00,
2013-08-14 05:00:00,44.1,44.1,30.11,North,0,0.0,0.0,100,0.00,,OVC050,0.00,VWS V12.07,2013-08-14 10:00:00,
2013-08-14 05:10:00,43.9,43.9,30.11,North,0,0.0,0.0,100,0.00,,OVC050,0.00,VWS V12.07,2013-08-14 10:10:00,
2013-08-14 05:20:00,44.1,44.1,30.12,North,0,0.0,0.0,100,0.00,,OVC050,0.00,VWS V12.07,2013-08-14 10:20:00,
2013-08-14 05:30:00,44.1,44.1,30.12,North,0,0.0,0.0,100,0.00,,OVC050,0.00,VWS V12.07,2013-08-14 10:30:00,
2013-08-14 05:40:00,43.9,43.9,30.12,North,0,0.0,0.0,100,0.00,,OVC050,0.00,VWS V12.07,2013-08-14 10:40:00,
2013-08-14 05:50:00,44.1,44.1,30.12,North,0,0.0,0.0,100,0.00,,OVC050,0.00,VWS V12.07,2013-08-14 10:50:00,
2013-08-14 06:00:00,44.2,44.2,30.12,North,0,0.0,0.0,100,0.00,,OVC050,0.00,VWS V12.07,2013-08-14 11:00:00,
2013-08-14 06:10:00,44.8,44.8,30.12,North,0,0.0,0.0,100,0.00,,OVC050,0.00,VWS V12.07,2013-08-14 11:10:00,
2013-08-14 06:20:00,45.5,45.5,30.13,North,0,0.0,0.0,100,0.00,,OVC050,0.00,VWS V12.07,2013-08-14 11:20:00,
2013-08-14 06:30:00,46.0,46.0,30.13,North,0,0.0,0.0,100,0.00,,OVC050,0.00,VWS V12.07,2013-08-14 11:30:00,
2013-08-14 06:40:00,46.1,46.1,30.13,North,0,0.0,0.0,100,0.00,,OVC050,0.00,VWS V12.07,2013-08-14 11:40:00,
2013-08-14 06:50:00,46.4,46.4,30.13,North,0,0.0,0.0,100,0.00,,OVC050,0.00,VWS V12.07,2013-08-14 11:50:00,
2013-08-14 07:00:00,46.7,46.7,30.14,North,0,0.0,0.0,100,0.00,,OVC050,0.00,VWS V12.07,2013-08-14 12:00:00,
2013-08-14 07:10:00,46.8,46.8,30.14,North,0,0.0,0.0,100,0.00,,OVC050,0.00,VWS V12.07,2013-08-14 12:10:00,
2013-08-14 07:20:00,47.0,47.0,30.14,North,0,0.0,0.0,100,0.00,,OVC050,0.00,VWS V12.07,2013-08-14 12:20:00,
2013-08-14 07:30:00,47.3,47.3,30.15,North,0,0.0,0.0,100,0.00,,OVC050,0.00,VWS V12.07,2013-08-14 12:30:00,
2013-08-14 07:40:00,47.4,47.4,30.15,North,0,0.0,0.0,100,0.00,,OVC050,0.00,VWS V12.07,2013-08-14 12:40:00,
2013-08-14 07:50:00,48.0,48.0,30.14,North,0,0.0,0.0,100,0.00,,OVC050,0.00,VWS V12.07,2013-08-14 12:50:00,
2013-08-14 08:00:00,48.5,48.5,30.14,North,0,0.0,0.0,100,0.00,,OVC050,0.00,VWS V12.07,2013-08-14 13:00:00,
2013-08-14 08:10:00,48.9,48.9,30.14,North,0,0.0,0.0,100,0.00,,OVC050,0.00,VWS V12.07,2013-08-14 13:10:00,
2013-08-14 08:20:00,49.4,49.4,30.14,North,0,0.0,0.0,100,0.00,,OVC050,0.00,VWS V12.07,2013-08-14 13:20:00,
2013-08-14 08:30:00,49.9,49.9,30.14,North,0,0.0,0.0,100,0.00,,OVC050,0.00,VWS V12.07,2013-08-14 13:30:00,
2013-08-14 08:40:00,50.5,50.5,30.14,North,0,0.0,0.0,100,0.00,,OVC050,0.00,VWS V12.07,2013-08-14 13:40:00,
2013-08-14 08:50:00,51.0,51.0,30.13,North,0,0.0,0.0,100,0.00,,OVC050,0.00,VWS V12.07,2013-08-14 13:50:00,
2013-08-14 09:00:00,51.4,51.1,30.13,North,0,0.0,0.0,99,0.00,,OVC050,0.00,VWS V12.07,2013-08-14 14:00:00,
2013-08-14 09:10:00,52.2,51.1,30.13,North,0,0.0,0.0,96,0.00,,OVC050,0.00,VWS V12.07,2013-08-14 14:10:00,
2013-08-14 09:20:00,52.9,51.5,30.13,ENE,68,0.0,2.0,95,0.00,,OVC050,0.00,VWS V12.07,2013-08-14 14:20:00,
2013-08-14 09:31:00,43.9,43.9,30.12,North,0,0.0,0.0,100,0.00,,,0.00,VWS V12.07,2013-08-14 14:31:00,
2013-08-14 09:32:00,44.1,44.1,30.12,North,0,0.0,0.0,100,0.00,,,0.00,VWS V12.07,2013-08-14 14:32:00,
2013-08-14 09:37:00,55.7,49.3,30.12,ENE,65,1.0,1.0,79,0.00,,OVC050,0.00,VWS V12.07,2013-08-14 14:37:00,
2013-08-14 09:42:00,56.0,49.2,30.12,ENE,65,0.0,1.0,78,0.00,,OVC050,0.00,VWS V12.07,2013-08-14 14:42:00,
2013-08-14 09:43:00,56.0,49.2,30.12,ENE,65,0.0,1.0,78,0.00,,OVC050,0.00,VWS V12.07,2013-08-14 14:43:00,
2013-08-14 09:47:00,56.2,49.4,30.12,East,94,1.0,3.0,78,0.00,,OVC050,0.00,VWS V12.07,2013-08-14 14:47:00,
2013-08-14 09:48:00,56.2,49.4,30.12,East,94,1.0,3.0,78,0.00,,OVC050,0.00,VWS V12.07,2013-08-14 14:48:00,
2013-08-14 09:53:00,56.3,48.5,30.12,East,96,0.0,3.0,75,0.00,,OVC050,0.00,VWS V12.07,2013-08-14 14:53:00,
2013-08-14 09:54:00,56.3,48.5,30.12,East,96,0.0,3.0,75,0.00,,OVC050,0.00,VWS V12.07,2013-08-14 14:54:00,
2013-08-14 09:58:00,56.6,48.8,30.12,East,96,0.0,1.0,75,0.00,,OVC050,0.00,VWS V12.07,2013-08-14 14:58:00,
2013-08-14 09:59:00,56.7,48.9,30.12,East,96,0.0,1.0,75,0.00,,OVC050,0.00,VWS V12.07,2013-08-14 14:59:00,
2013-08-14 10:03:00,56.9,49.1,30.12,East,96,0.0,2.0,75,0.00,,OVC050,0.00,VWS V12.07,2013-08-14 15:03:00,
2013-08-14 10:04:00,56.9,49.1,30.12,East,96,0.0,2.0,75,0.00,,OVC050,0.00,VWS V12.07,2013-08-14 15:04:00,
2013-08-14 10:08:00,57.3,50.2,30.12,East,96,0.0,1.0,77,0.00,,OVC050,0.00,VWS V12.07,2013-08-14 15:08:00,
2013-08-14 10:09:00,57.3,50.2,30.12,East,96,0.0,1.0,77,0.00,,OVC050,0.00,VWS V12.07,2013-08-14 15:09:00,
2013-08-14 10:14:00,57.5,48.6,30.12,East,96,0.0,1.0,72,0.00,,OVC050,0.00,VWS V12.07,2013-08-14 15:14:00,
2013-08-14 10:15:00,57.6,49.0,30.12,East,96,0.0,0.0,73,0.00,,OVC050,0.00,VWS V12.07,2013-08-14 15:15:00,
2013-08-14 10:19:00,58.7,50.1,30.12,East,96,0.0,1.0,73,0.00,,OVC050,0.00,VWS V12.07,2013-08-14 15:19:00,
2013-08-14 10:20:00,58.7,50.1,30.12,East,96,0.0,1.0,73,0.00,,OVC050,0.00,VWS V12.07,2013-08-14 15:20:00,
2013-08-14 10:22:00,59.3,48.4,30.12,East,93,0.0,1.0,67,0.00,,OVC050,0.00,VWS V12.07,2013-08-14 15:22:00,
2013-08-14 10:25:00,59.6,48.6,30.12,East,92,0.0,3.0,67,0.00,,OVC050,0.00,VWS V12.07,2013-08-14 15:25:00,
2013-08-14 10:27:00,59.9,48.9,30.12,East,92,1.0,3.0,67,0.00,,OVC050,0.00,VWS V12.07,2013-08-14 15:27:00,
2013-08-14 10:30:00,60.1,49.1,30.12,East,92,1.0,3.0,67,0.00,,OVC050,0.00,VWS V12.07,2013-08-14 15:30:00,
2013-08-14 10:31:00,60.2,49.2,30.12,East,91,0.0,3.0,67,0.00,,OVC050,0.00,VWS V12.07,2013-08-14 15:31:00,
2013-08-14 10:32:00,60.2,48.8,30.12,East,91,0.0,3.0,66,0.00,,OVC050,0.00,VWS V12.07,2013-08-14 15:32:00,
2013-08-14 10:35:00,60.5,48.3,30.12,East,91,0.0,1.0,64,0.00,,OVC050,0.00,VWS V12.07,2013-08-14 15:35:00,
2013-08-14 10:36:00,60.5,48.7,30.12,East,91,0.0,1.0,65,0.00,,OVC050,0.00,VWS V12.07,2013-08-14 15:36:00,
2013-08-14 10:39:00,60.7,48.0,30.12,East,91,0.0,1.0,63,0.00,,OVC050,0.00,VWS V12.07,2013-08-14 15:39:00,
2013-08-14 10:40:00,60.7,48.5,30.12,ENE,66,2.0,2.0,64,0.00,,OVC050,0.00,VWS V12.07,2013-08-14 15:40:00,
2013-08-14 10:41:00,60.9,47.8,30.12,ENE,63,1.0,2.0,62,0.00,,OVC050,0.00,VWS V12.07,2013-08-14 15:41:00,
2013-08-14 10:42:00,60.9,48.7,30.12,ENE,63,0.0,2.0,64,0.00,,OVC050,0.00,VWS V12.07,2013-08-14 15:42:00,
2013-08-14 10:44:00,61.0,49.2,30.11,ENE,75,0.0,1.0,65,0.00,,OVC050,0.00,VWS V12.07,2013-08-14 15:44:00,
2013-08-14 10:45:00,61.0,47.9,30.11,ENE,75,0.0,1.0,62,0.00,,OVC050,0.00,VWS V12.07,2013-08-14 15:45:00,
2013-08-14 10:46:00,61.2,47.7,30.11,ENE,75,0.0,1.0,61,0.00,,OVC050,0.00,VWS V12.07,2013-08-14 15:46:00,
2013-08-14 10:47:00,61.2,47.7,30.11,ENE,76,0.0,2.0,61,0.00,,OVC050,0.00,VWS V12.07,2013-08-14 15:47:00,
2013-08-14 10:51:00,62.0,48.0,30.11,ENE,76,0.0,2.0,60,0.00,,OVC050,0.00,VWS V12.07,2013-08-14 15:51:00,
2013-08-14 10:54:00,62.4,47.9,30.11,ENE,76,2.0,2.0,59,0.00,,OVC050,0.00,VWS V12.07,2013-08-14 15:54:00,
2013-08-14 10:56:00,62.6,49.0,30.11,East,82,1.0,3.0,61,0.00,,OVC050,0.00,VWS V12.07,2013-08-14 15:56:00,
2013-08-14 10:57:00,62.6,48.5,30.10,ENE,70,3.0,3.0,60,0.00,,OVC050,0.00,VWS V12.07,2013-08-14 15:57:00,
2013-08-14 10:59:00,62.6,49.0,30.10,ENE,70,0.0,3.0,61,0.00,,OVC050,0.00,VWS V12.07,2013-08-14 15:59:00,
2013-08-14 11:01:00,62.4,48.8,30.10,ENE,70,0.0,3.0,61,0.00,,OVC050,0.00,VWS V12.07,2013-08-14 16:01:00,
2013-08-14 11:02:00,62.4,48.3,30.10,ENE,70,0.0,3.0,60,0.00,,OVC050,0.00,VWS V12.07,2013-08-14 16:02:00,
2013-08-14 11:04:00,62.7,49.1,30.10,ENE,70,0.0,1.0,61,0.00,,OVC050,0.00,VWS V12.07,2013-08-14 16:04:00,
2013-08-14 11:05:00,62.9,49.3,30.10,ENE,70,0.0,1.0,61,0.00,,OVC050,0.00,VWS V12.07,2013-08-14 16:05:00,
2013-08-14 11:06:00,62.9,47.9,30.10,SSE,157,0.0,4.0,58,0.00,,OVC050,0.00,VWS V12.07,2013-08-14 16:06:00,
2013-08-14 11:07:00,62.9,47.9,30.10,SSE,157,1.0,4.0,58,0.00,,OVC050,0.00,VWS V12.07,2013-08-14 16:07:00,
2013-08-14 11:08:00,62.9,47.9,30.10,SSW,204,3.0,4.0,58,0.00,,OVC050,0.00,VWS V12.07,2013-08-14 16:08:00,
2013-08-14 11:10:00,62.6,48.1,30.10,ESE,103,0.0,4.0,59,0.00,,OVC050,0.00,VWS V12.07,2013-08-14 16:10:00,
2013-08-14 11:12:00,62.6,47.6,30.10,South,190,4.0,4.0,58,0.00,,OVC050,0.00,VWS V12.07,2013-08-14 16:12:00,
2013-08-14 11:13:00,62.4,47.9,30.10,SSW,195,1.0,4.0,59,0.00,,OVC050,0.00,VWS V12.07,2013-08-14 16:13:00,
2013-08-14 11:15:00,62.4,47.9,30.10,ENE,69,0.0,3.0,59,0.00,,OVC050,0.00,VWS V12.07,2013-08-14 16:15:00,
2013-08-14 11:17:00,62.4,47.9,30.10,SSW,206,0.0,3.0,59,0.00,,OVC050,0.00,VWS V12.07,2013-08-14 16:17:00,
2013-08-14 11:18:00,62.3,48.2,30.10,South,187,1.0,3.0,60,0.00,,OVC050,0.00,VWS V12.07,2013-08-14 16:18:00,
2013-08-14 11:20:00,62.4,48.3,30.10,SSE,148,1.0,3.0,60,0.00,,OVC050,0.00,VWS V12.07,2013-08-14 16:20:00,
2013-08-14 11:21:00,62.6,48.1,30.10,SSE,160,2.0,3.0,59,0.00,,OVC050,0.00,VWS V12.07,2013-08-14 16:21:00,
2013-08-14 11:24:00,62.9,47.9,30.10,SSW,193,0.0,3.0,58,0.00,,OVC050,0.00,VWS V12.07,2013-08-14 16:24:00,
2013-08-14 11:26:00,63.2,49.1,30.10,SSW,193,0.0,1.0,60,0.00,,OVC050,0.00,VWS V12.07,2013-08-14 16:26:00,
2013-08-14 11:27:00,63.5,48.9,30.09,SSW,193,0.0,1.0,59,0.00,,OVC050,0.00,VWS V12.07,2013-08-14 16:27:00,
2013-08-14 11:28:00,63.7,49.1,30.09,SSW,193,0.0,1.0,59,0.00,,OVC050,0.00,VWS V12.07,2013-08-14 16:28:00,
2013-08-14 11:30:00,64.2,49.1,30.09,SSW,193,0.0,1.0,58,0.00,,OVC050,0.00,VWS V12.07,2013-08-14 16:30:00,
2013-08-14 11:31:00,64.2,48.7,30.09,SSW,193,0.0,1.0,57,0.00,,OVC050,0.00,VWS V12.07,2013-08-14 16:31:00,
2013-08-14 11:33:00,63.7,48.2,30.09,SSW,193,0.0,3.0,57,0.00,,OVC050,0.00,VWS V12.07,2013-08-14 16:33:00,
2013-08-14 11:34:00,63.5,48.0,30.09,SSW,193,0.0,0.0,57,0.00,,SCT050,0.00,VWS V12.07,2013-08-14 16:34:00,
2013-08-14 11:35:00,63.5,48.0,30.09,SW,218,1.0,2.0,57,0.00,,SCT050,0.00,VWS V12.07,2013-08-14 16:35:00,
2013-08-14 11:36:00,63.4,47.9,30.09,SSW,196,1.0,4.0,57,0.00,,SCT050,0.00,VWS V12.07,2013-08-14 16:36:00,
2013-08-14 11:38:00,63.1,48.1,30.09,SSW,196,0.0,4.0,58,0.00,,SCT050,0.00,VWS V12.07,2013-08-14 16:38:00,
2013-08-14 11:39:00,62.9,47.9,30.09,SSW,199,0.0,4.0,58,0.00,,SCT050,0.00,VWS V12.07,2013-08-14 16:39:00,
2013-08-14 11:40:00,62.9,48.4,30.09,SSW,210,1.0,4.0,59,0.00,,SCT050,0.00,VWS V12.07,2013-08-14 16:40:00,
2013-08-14 11:42:00,62.9,47.5,30.09,ESE,109,0.0,4.0,57,0.00,,SCT050,0.00,VWS V12.07,2013-08-14 16:42:00,
2013-08-14 11:43:00,63.2,47.7,30.10,ENE,77,0.0,4.0,57,0.00,,SCT050,0.00,VWS V12.07,2013-08-14 16:43:00,
2013-08-14 11:45:00,63.4,47.9,30.10,South,170,2.0,3.0,57,0.00,,SCT050,0.00,VWS V12.07,2013-08-14 16:45:00,
2013-08-14 11:47:00,63.2,47.7,30.10,SSE,156,0.0,3.0,57,0.00,,SCT050,0.00,VWS V12.07,2013-08-14 16:47:00,
2013-08-14 11:49:00,63.1,49.0,30.10,SSE,158,0.0,3.0,60,0.00,,BKN050,0.00,VWS V12.07,2013-08-14 16:49:00,
2013-08-14 11:50:00,63.1,49.0,30.10,SSE,164,1.0,3.0,60,0.00,,BKN048,0.00,VWS V12.07,2013-08-14 16:50:00,
2013-08-14 11:51:00,63.1,49.5,30.10,SSE,165,2.0,3.0,61,0.00,,BKN048,0.00,VWS V12.07,2013-08-14 16:51:00,
2013-08-14 11:52:00,63.2,50.0,30.10,South,176,1.0,3.0,62,0.00,,BKN048,0.00,VWS V12.07,2013-08-14 16:52:00,
2013-08-14 11:55:00,64.2,49.6,30.10,South,176,0.0,1.0,59,0.00,,BKN048,0.00,VWS V12.07,2013-08-14 16:55:00,
2013-08-14 11:56:00,64.3,50.1,30.10,SSE,154,0.0,1.0,60,0.00,,BKN048,0.00,VWS V12.07,2013-08-14 16:56:00,
2013-08-14 11:57:00,64.8,50.6,30.09,SSE,154,0.0,1.0,60,0.00,,BKN048,0.00,VWS V12.07,2013-08-14 16:57:00,
2013-08-14 12:01:00,65.6,50.0,30.09,SE,124,0.0,2.0,57,0.00,,BKN048,0.00,VWS V12.07,2013-08-14 17:01:00,
2013-08-14 12:02:00,65.6,49.0,30.09,ENE,60,3.0,3.0,55,0.00,,BKN048,0.00,VWS V12.07,2013-08-14 17:02:00,
2013-08-14 12:03:00,65.8,49.7,30.09,East,96,3.0,3.0,56,0.00,,BKN048,0.00,VWS V12.07,2013-08-14 17:03:00,
2013-08-14 12:06:00,65.8,50.6,30.09,South,184,1.0,3.0,58,0.00,,BKN048,0.00,VWS V12.07,2013-08-14 17:06:00,
2013-08-14 12:08:00,66.0,50.3,30.09,South,179,0.0,3.0,57,0.00,,BKN048,0.00,VWS V12.07,2013-08-14 17:08:00,
2013-08-14 12:09:00,66.1,50.9,30.09,South,179,0.0,3.0,58,0.00,,BKN048,0.00,VWS V12.07,2013-08-14 17:09:00,
2013-08-14 12:12:00,66.0,49.4,30.09,South,179,0.0,3.0,55,0.00,,BKN048,0.00,VWS V12.07,2013-08-14 17:12:00,
2013-08-14 12:13:00,66.0,49.4,30.09,South,179,0.0,3.0,55,0.00,,BKN048,0.00,VWS V12.07,2013-08-14 17:13:00,
2013-08-14 12:14:00,66.0,49.9,30.09,South,179,1.0,3.0,56,0.00,,BKN048,0.00,VWS V12.07,2013-08-14 17:14:00,
2013-08-14 12:18:00,65.5,48.4,30.09,South,173,0.0,2.0,54,0.00,,BKN048,0.00,VWS V12.07,2013-08-14 17:18:00,
2013-08-14 12:19:00,65.3,49.2,30.09,South,173,0.0,2.0,56,0.00,,BKN048,0.00,VWS V12.07,2013-08-14 17:19:00,
2013-08-14 12:23:00,64.3,49.7,30.09,ENE,71,1.0,3.0,59,0.00,,BKN048,0.00,VWS V12.07,2013-08-14 17:23:00,
2013-08-14 12:24:00,64.2,48.7,30.09,ENE,71,1.0,1.0,57,0.00,,BKN048,0.00,VWS V12.07,2013-08-14 17:24:00,
2013-08-14 12:28:00,63.4,48.8,30.10,ENE,71,0.0,1.0,59,0.00,,BKN048,0.00,VWS V12.07,2013-08-14 17:28:00,
2013-08-14 12:29:00,63.1,48.6,30.10,ENE,71,0.0,1.0,59,0.00,,BKN048,0.00,VWS V12.07,2013-08-14 17:29:00,
2013-08-14 12:30:00,63.1,48.6,30.10,ENE,71,0.0,1.0,59,0.00,,BKN048,0.00,VWS V12.07,2013-08-14 17:30:00,
2013-08-14 12:33:00,62.9,47.9,30.10,ENE,71,0.0,1.0,58,0.00,,OVC050,0.00,VWS V12.07,2013-08-14 17:33:00,
2013-08-14 12:34:00,62.9,48.8,30.10,ENE,71,0.0,1.0,60,0.00,,OVC050,0.00,VWS V12.07,2013-08-14 17:34:00,
2013-08-14 12:35:00,62.9,49.3,30.10,ENE,71,0.0,1.0,61,0.00,,OVC050,0.00,VWS V12.07,2013-08-14 17:35:00,
2013-08-14 12:37:00,62.9,49.3,30.10,ENE,71,0.0,1.0,61,0.00,,OVC050,0.00,VWS V12.07,2013-08-14 17:37:00,
2013-08-14 12:39:00,62.9,48.8,30.10,ENE,71,0.0,1.0,60,0.00,,OVC050,0.00,VWS V12.07,2013-08-14 17:39:00,
2013-08-14 12:40:00,63.1,48.6,30.10,ENE,71,0.0,1.0,59,0.00,,OVC050,0.00,VWS V12.07,2013-08-14 17:40:00,
2013-08-14 12:41:00,63.2,48.7,30.10,ENE,71,0.0,1.0,59,0.00,,OVC050,0.00,VWS V12.07,2013-08-14 17:41:00,
2013-08-14 12:42:00,63.2,49.1,30.10,SSW,200,1.0,3.0,60,0.00,,OVC050,0.00,VWS V12.07,2013-08-14 17:42:00,
2013-08-14 12:44:00,63.2,47.7,30.09,SSW,201,0.0,3.0,57,0.00,,OVC050,0.00,VWS V12.07,2013-08-14 17:44:00,
2013-08-14 12:45:00,63.1,47.6,30.09,SSW,200,0.0,3.0,57,0.00,,OVC050,0.00,VWS V12.07,2013-08-14 17:45:00,
2013-08-14 12:46:00,63.1,48.1,30.09,SSW,201,0.0,3.0,58,0.00,,OVC050,0.00,VWS V12.07,2013-08-14 17:46:00,
2013-08-14 12:47:00,63.1,48.6,30.09,SSW,200,0.0,3.0,59,0.00,,OVC050,0.00,VWS V12.07,2013-08-14 17:47:00,
2013-08-14 12:49:00,63.2,47.7,30.09,South,188,1.0,3.0,57,0.00,,OVC048,0.00,VWS V12.07,2013-08-14 17:49:00,
2013-08-14 12:51:00,63.7,47.7,30.09,SSW,197,1.0,3.0,56,0.00,,OVC048,0.00,VWS V12.07,2013-08-14 17:51:00,
2013-08-14 12:52:00,64.2,48.2,30.09,SSW,197,0.0,3.0,56,0.00,,OVC048,0.00,VWS V12.07,2013-08-14 17:52:00,
2013-08-14 12:53:00,64.7,48.2,30.09,SSW,197,0.0,3.0,55,0.00,,OVC048,0.00,VWS V12.07,2013-08-14 17:53:00,
2013-08-14 12:54:00,65.0,48.9,30.09,SSW,197,1.0,1.0,56,0.00,,OVC048,0.00,VWS V12.07,2013-08-14 17:54:00,
2013-08-14 12:56:00,65.2,48.6,30.09,SSW,197,0.0,3.0,55,0.00,,OVC048,0.00,VWS V12.07,2013-08-14 17:56:00,
2013-08-14 12:58:00,65.2,49.1,30.08,SSW,197,0.0,3.0,56,0.00,,OVC048,0.00,VWS V12.07,2013-08-14 17:58:00,
2013-08-14 13:00:00,64.8,49.2,30.08,SSW,197,0.0,3.0,57,0.00,,OVC048,0.00,VWS V12.07,2013-08-14 18:00:00,
2013-08-14 13:05:00,64.5,50.3,30.08,SSW,197,1.0,1.0,60,0.00,,OVC048,0.00,VWS V12.07,2013-08-14 18:05:00,
2013-08-14 13:06:00,64.3,48.3,30.08,SSW,197,0.0,1.0,56,0.00,,OVC048,0.00,VWS V12.07,2013-08-14 18:06:00,
2013-08-14 13:10:00,64.2,50.5,30.08,SSW,197,0.0,1.0,61,0.00,,OVC048,0.00,VWS V12.07,2013-08-14 18:10:00,
2013-08-14 13:11:00,64.2,50.0,30.08,South,183,0.0,1.0,60,0.00,,OVC048,0.00,VWS V12.07,2013-08-14 18:11:00,
2013-08-14 13:12:00,64.0,49.4,30.08,East,79,0.0,3.0,59,0.00,,OVC048,0.00,VWS V12.07,2013-08-14 18:12:00,
2013-08-14 13:17:00,63.7,49.1,30.08,East,79,0.0,1.0,59,0.00,,OVC048,0.00,VWS V12.07,2013-08-14 18:17:00,
2013-08-14 13:18:00,63.9,49.8,30.08,East,79,0.0,1.0,60,0.00,,OVC048,0.00,VWS V12.07,2013-08-14 18:18:00,
2013-08-14 13:22:00,64.2,49.1,30.08,East,79,0.0,1.0,58,0.00,,OVC048,0.00,VWS V12.07,2013-08-14 18:22:00,
2013-08-14 13:24:00,64.3,49.2,30.08,East,79,0.0,1.0,58,0.00,,OVC048,0.00,VWS V12.07,2013-08-14 18:24:00,
2013-08-14 13:25:00,64.5,48.5,30.08,East,79,0.0,2.0,56,0.00,,OVC048,0.00,VWS V12.07,2013-08-14 18:25:00,
2013-08-14 13:27:00,64.2,48.2,30.08,East,79,0.0,2.0,56,0.00,,OVC048,0.00,VWS V12.07,2013-08-14 18:27:00,
2013-08-14 13:30:00,64.2,47.7,30.08,East,79,2.0,2.0,55,0.00,,OVC048,0.00,VWS V12.07,2013-08-14 18:30:00,
2013-08-14 13:32:00,64.7,48.7,30.08,NE,41,1.0,3.0,56,0.00,,BKN050,0.00,VWS V12.07,2013-08-14 18:32:00,
2013-08-14 13:33:00,64.8,48.8,30.08,NE,41,0.0,3.0,56,0.00,,BKN050,0.00,VWS V12.07,2013-08-14 18:33:00,
2013-08-14 13:35:00,65.8,50.2,30.08,NE,49,0.0,3.0,57,0.00,,BKN050,0.00,VWS V12.07,2013-08-14 18:35:00,
2013-08-14 13:37:00,66.3,49.7,30.08,NE,49,0.0,3.0,55,0.00,,BKN050,0.00,VWS V12.07,2013-08-14 18:37:00,
2013-08-14 13:38:00,66.4,49.8,30.08,NE,49,0.0,3.0,55,0.00,,BKN050,0.00,VWS V12.07,2013-08-14 18:38:00,
2013-08-14 13:40:00,66.4,49.3,30.08,SW,219,0.0,3.0,54,0.00,,BKN050,0.00,VWS V12.07,2013-08-14 18:40:00,
2013-08-14 13:42:00,66.3,49.2,30.07,NW,311,3.0,3.0,54,0.00,,BKN050,0.00,VWS V12.07,2013-08-14 18:42:00,
2013-08-14 13:43:00,66.3,49.2,30.07,NW,311,2.0,3.0,54,0.00,,BKN050,0.00,VWS V12.07,2013-08-14 18:43:00,
2013-08-14 13:46:00,66.0,49.4,30.07,NW,311,0.0,2.0,55,0.00,,BKN050,0.00,VWS V12.07,2013-08-14 18:46:00,
2013-08-14 13:48:00,65.8,49.7,30.07,NW,311,0.0,2.0,56,0.00,,BKN050,0.00,VWS V12.07,2013-08-14 18:48:00,
2013-08-14 13:49:00,65.6,49.5,30.07,NW,312,0.0,2.0,56,0.00,,OVC050,0.00,VWS V12.07,2013-08-14 18:49:00,
2013-08-14 13:51:00,65.5,49.4,30.07,NW,312,0.0,2.0,56,0.00,,OVC050,0.00,VWS V12.07,2013-08-14 18:51:00,
2013-08-14 13:52:00,65.2,50.1,30.07,NW,311,0.0,2.0,58,0.00,,OVC050,0.00,VWS V12.07,2013-08-14 18:52:00,
2013-08-14 13:54:00,65.0,49.4,30.07,NW,311,0.0,1.0,57,0.00,,OVC050,0.00,VWS V12.07,2013-08-14 18:54:00,
2013-08-14 13:56:00,65.2,50.1,30.07,East,80,0.0,2.0,58,0.00,,OVC050,0.00,VWS V12.07,2013-08-14 18:56:00,
2013-08-14 13:58:00,65.5,49.4,30.07,East,86,0.0,4.0,56,0.00,,OVC050,0.00,VWS V12.07,2013-08-14 18:58:00,
2013-08-14 13:59:00,65.6,50.4,30.07,East,86,0.0,4.0,58,0.00,,OVC050,0.00,VWS V12.07,2013-08-14 18:59:00,
2013-08-14 14:00:00,65.6,49.5,30.07,East,86,0.0,4.0,56,0.00,,OVC050,0.00,VWS V12.07,2013-08-14 19:00:00,
2013-08-14 14:01:00,65.8,49.7,30.07,East,86,0.0,4.0,56,0.00,,OVC050,0.00,VWS V12.07,2013-08-14 19:01:00,
2013-08-14 14:03:00,65.6,48.5,30.07,SE,133,0.0,4.0,54,0.00,,OVC050,0.00,VWS V12.07,2013-08-14 19:03:00,
2013-08-14 14:04:00,65.3,48.7,30.07,SE,133,0.0,1.0,55,0.00,,OVC050,0.00,VWS V12.07,2013-08-14 19:04:00,
2013-08-14 14:05:00,65.3,48.7,30.07,SE,133,0.0,1.0,55,0.00,,OVC050,0.00,VWS V12.07,2013-08-14 19:05:00,
2013-08-14 14:06:00,65.5,49.4,30.07,SE,133,0.0,1.0,56,0.00,,OVC050,0.00,VWS V12.07,2013-08-14 19:06:00,
2013-08-14 14:07:00,65.5,48.9,30.07,SE,133,0.0,1.0,55,0.00,,OVC050,0.00,VWS V12.07,2013-08-14 19:07:00,
2013-08-14 14:08:00,65.6,49.0,30.07,SE,133,0.0,1.0,55,0.00,,OVC050,0.00,VWS V12.07,2013-08-14 19:08:00,
2013-08-14 14:12:00,66.4,49.3,30.07,SSW,208,3.0,5.0,54,0.00,,OVC050,0.00,VWS V12.07,2013-08-14 19:12:00,
2013-08-14 14:13:00,66.3,49.2,30.06,SSW,209,2.0,5.0,54,0.00,,OVC050,0.00,VWS V12.07,2013-08-14 19:13:00,
2013-08-14 14:15:00,66.0,47.9,30.06,SSW,209,0.0,3.0,52,0.00,,OVC050,0.00,VWS V12.07,2013-08-14 19:15:00,
2013-08-14 14:18:00,65.8,48.2,30.06,SSW,209,0.0,3.0,53,0.00,,OVC050,0.00,VWS V12.07,2013-08-14 19:18:00,
2013-08-14 14:19:00,66.1,48.5,30.06,SSW,208,0.0,3.0,53,0.00,,OVC050,0.00,VWS V12.07,2013-08-14 19:19:00,
2013-08-14 14:21:00,66.3,48.2,30.06,SSW,207,1.0,3.0,52,0.00,,OVC050,0.00,VWS V12.07,2013-08-14 19:21:00,
2013-08-14 14:23:00,66.8,49.1,30.06,South,188,2.0,4.0,53,0.00,,OVC050,0.00,VWS V12.07,2013-08-14 19:23:00,
2013-08-14 14:25:00,66.4,48.8,30.06,SSE,168,2.0,4.0,53,0.00,,OVC050,0.00,VWS V12.07,2013-08-14 19:25:00,
2013-08-14 14:26:00,66.3,49.2,30.06,SSE,168,0.0,4.0,54,0.00,,OVC050,0.00,VWS V12.07,2013-08-14 19:26:00,
2013-08-14 14:28:00,66.0,48.9,30.06,SSE,168,0.0,4.0,54,0.00,,OVC050,0.00,VWS V12.07,2013-08-14 19:28:00,
2013-08-14 14:31:00,65.6,48.0,30.06,SSE,168,0.0,4.0,53,0.00,,OVC050,0.00,VWS V12.07,2013-08-14 19:31:00,
2013-08-14 14:33:00,65.5,48.4,30.06,SSE,168,1.0,4.0,54,0.00,,OVC050,0.00,VWS V12.07,2013-08-14 19:33:00,
2013-08-14 14:35:00,65.5,49.4,30.06,East,94,0.0,2.0,56,0.00,,OVC060,0.00,VWS V12.07,2013-08-14 19:35:00,
2013-08-14 14:36:00,65.5,50.8,30.06,East,94,0.0,2.0,59,0.00,,OVC060,0.00,VWS V12.07,2013-08-14 19:36:00,
2013-08-14 14:38:00,66.1,49.0,30.06,ENE,74,2.0,4.0,54,0.00,,OVC060,0.00,VWS V12.07,2013-08-14 19:38:00,
2013-08-14 14:39:00,66.3,49.2,30.06,ENE,74,0.0,4.0,54,0.00,,OVC060,0.00,VWS V12.07,2013-08-14 19:39:00,
2013-08-14 14:40:00,66.6,50.4,30.06,ENE,74,0.0,4.0,56,0.00,,OVC060,0.00,VWS V12.07,2013-08-14 19:40:00,
2013-08-14 14:41:00,66.8,51.1,30.06,ENE,74,0.0,4.0,57,0.00,,OVC060,0.00,VWS V12.07,2013-08-14 19:41:00,
2013-08-14 14:44:00,66.6,49.5,30.06,NE,44,0.0,0.0,54,0.00,,OVC060,0.00,VWS V12.07,2013-08-14 19:44:00,
2013-08-14 14:46:00,66.4,49.8,30.06,South,183,0.0,2.0,55,0.00,,OVC060,0.00,VWS V12.07,2013-08-14 19:46:00,
2013-08-14 14:47:00,66.4,49.8,30.06,South,183,0.0,2.0,55,0.00,,OVC060,0.00,VWS V12.07,2013-08-14 19:47:00,
2013-08-14 14:50:00,65.8,49.7,30.06,South,181,0.0,2.0,56,0.00,,BKN060,0.00,VWS V12.07,2013-08-14 19:50:00,
2013-08-14 14:51:00,65.6,49.0,30.06,South,181,0.0,2.0,55,0.00,,BKN060,0.00,VWS V12.07,2013-08-14 19:51:00,
2013-08-14 14:52:00,65.6,49.0,30.06,South,181,0.0,2.0,55,0.00,,BKN060,0.00,VWS V12.07,2013-08-14 19:52:00,
2013-08-14 14:55:00,65.6,50.0,30.06,South,181,0.0,1.0,57,0.00,,BKN060,0.00,VWS V12.07,2013-08-14 19:55:00,
2013-08-14 14:58:00,66.3,48.2,30.06,SE,126,1.0,2.0,52,0.00,,BKN060,0.00,VWS V12.07,2013-08-14 19:58:00,
2013-08-14 14:59:00,66.4,47.7,30.06,SE,125,1.0,2.0,51,0.00,,BKN060,0.00,VWS V12.07,2013-08-14 19:59:00,
2013-08-14 15:00:00,66.9,48.2,30.06,SE,125,0.0,2.0,51,0.00,,BKN060,0.00,VWS V12.07,2013-08-14 20:00:00,
2013-08-14 15:03:00,67.6,50.4,30.06,SE,124,1.0,2.0,54,0.00,,BKN060,0.00,VWS V12.07,2013-08-14 20:03:00,
2013-08-14 15:05:00,67.8,49.5,30.06,SSE,160,3.0,3.0,52,0.00,,BKN060,0.00,VWS V12.07,2013-08-14 20:05:00,
2013-08-14 15:06:00,67.8,49.5,30.06,ESE,110,3.0,3.0,52,0.00,,BKN060,0.00,VWS V12.07,2013-08-14 20:06:00,
2013-08-14 15:09:00,67.9,48.6,30.06,ESE,121,0.0,3.0,50,0.00,,BKN060,0.00,VWS V12.07,2013-08-14 20:09:00,
2013-08-14 15:10:00,68.3,49.0,30.06,East,96,2.0,3.0,50,0.00,,BKN060,0.00,VWS V12.07,2013-08-14 20:10:00,
2013-08-14 15:11:00,68.3,48.4,30.06,East,100,3.0,4.0,49,0.00,,BKN060,0.00,VWS V12.07,2013-08-14 20:11:00,
2013-08-14 15:14:00,68.3,50.0,30.05,NNE,30,2.0,4.0,52,0.00,,BKN060,0.00,VWS V12.07,2013-08-14 20:14:00,
2013-08-14 15:15:00,68.1,50.8,30.05,NNW,331,0.0,4.0,54,0.00,,BKN060,0.00,VWS V12.07,2013-08-14 20:15:00,
2013-08-14 15:16:00,68.1,50.8,30.05,NNW,331,1.0,4.0,54,0.00,,BKN060,0.00,VWS V12.07,2013-08-14 20:16:00,
2013-08-14 15:17:00,67.9,49.1,30.05,NNW,331,0.0,4.0,51,0.00,,BKN060,0.00,VWS V12.07,2013-08-14 20:17:00,
2013-08-14 15:21:00,67.1,48.9,30.05,NE,37,0.0,4.0,52,0.00,,BKN060,0.00,VWS V12.07,2013-08-14 20:21:00,
2013-08-14 15:22:00,67.1,48.9,30.05,NE,37,0.0,4.0,52,0.00,,BKN060,0.00,VWS V12.07,2013-08-14 20:22:00,
2013-08-14 15:23:00,66.9,48.2,30.05,NE,37,0.0,4.0,51,0.00,,BKN060,0.00,VWS V12.07,2013-08-14 20:23:00,
2013-08-14 15:27:00,66.3,49.2,30.05,NE,39,0.0,1.0,54,0.00,,BKN060,0.00,VWS V12.07,2013-08-14 20:27:00,
2013-08-14 15:28:00,66.1,49.0,30.05,NE,39,0.0,1.0,54,0.00,,BKN060,0.00,VWS V12.07,2013-08-14 20:28:00,
2013-08-14 15:30:00,66.3,49.2,30.05,NE,47,1.0,3.0,54,0.00,,BKN060,0.00,VWS V12.07,2013-08-14 20:30:00,
2013-08-14 15:34:00,66.9,47.7,30.05,NE,56,1.0,3.0,50,0.00,,OVC060,0.00,VWS V12.07,2013-08-14 20:34:00,
2013-08-14 15:35:00,67.1,48.4,30.05,NE,56,0.0,3.0,51,0.00,,OVC060,0.00,VWS V12.07,2013-08-14 20:35:00,
2013-08-14 15:36:00,66.9,48.2,30.05,East,86,0.0,3.0,51,0.00,,OVC060,0.00,VWS V12.07,2013-08-14 20:36:00,
2013-08-14 15:40:00,66.6,49.5,30.05,ENE,77,0.0,3.0,54,0.00,,OVC060,0.00,VWS V12.07,2013-08-14 20:40:00,
2013-08-14 15:42:00,66.6,49.0,30.05,ENE,77,0.0,3.0,53,0.00,,OVC060,0.00,VWS V12.07,2013-08-14 20:42:00,
2013-08-14 15:46:00,66.9,48.7,30.05,ENE,77,1.0,1.0,52,0.00,,OVC060,0.00,VWS V12.07,2013-08-14 20:46:00,
2013-08-14 15:48:00,66.9,48.7,30.05,East,80,0.0,4.0,52,0.00,,BKN060,0.00,VWS V12.07,2013-08-14 20:48:00,
2013-08-14 15:52:00,67.4,47.6,30.05,ESE,113,0.0,4.0,49,0.00,,BKN055,0.00,VWS V12.07,2013-08-14 20:52:00,
2013-08-14 15:53:00,67.6,47.2,30.05,ESE,113,0.0,4.0,48,0.00,,BKN055,0.00,VWS V12.07,2013-08-14 20:53:00,
2013-08-14 15:54:00,67.6,48.3,30.05,ESE,113,0.0,4.0,50,0.00,,BKN055,0.00,VWS V12.07,2013-08-14 20:54:00,
2013-08-14 15:57:00,67.3,47.5,30.05,SW,226,0.0,4.0,49,0.00,,BKN055,0.00,VWS V12.07,2013-08-14 20:57:00,
2013-08-14 15:58:00,67.3,47.5,30.05,SW,226,0.0,4.0,49,0.00,,BKN055,0.00,VWS V12.07,2013-08-14 20:58:00,
2013-08-14 15:59:00,67.3,48.0,30.05,SW,226,0.0,4.0,50,0.00,,BKN055,0.00,VWS V12.07,2013-08-14 20:59:00,
2013-08-14 16:03:00,67.1,47.9,30.05,NE,43,0.0,4.0,50,0.00,,BKN055,0.00,VWS V12.07,2013-08-14 21:03:00,
2013-08-14 16:04:00,66.9,48.7,30.05,NE,43,0.0,0.0,52,0.00,,BKN055,0.00,VWS V12.07,2013-08-14 21:04:00,
2013-08-14 16:08:00,66.6,47.4,30.05,West,269,0.0,6.0,50,0.00,,BKN055,0.00,VWS V12.07,2013-08-14 21:08:00,
2013-08-14 16:09:00,66.4,46.7,30.05,West,269,0.0,6.0,49,0.00,,BKN055,0.00,VWS V12.07,2013-08-14 21:09:00,
2013-08-14 16:13:00,66.3,46.6,30.05,SSW,196,0.0,6.0,49,0.00,,BKN055,0.00,VWS V12.07,2013-08-14 21:13:00,
2013-08-14 16:14:00,66.3,46.6,30.05,NE,42,1.0,6.0,49,0.00,,BKN055,0.00,VWS V12.07,2013-08-14 21:14:00,
2013-08-14 16:15:00,66.3,46.6,30.05,NE,50,0.0,2.0,49,0.00,,BKN055,0.00,VWS V12.07,2013-08-14 21:15:00,
2013-08-14 16:19:00,66.1,45.9,30.05,North,352,2.0,5.0,48,0.00,,BKN055,0.00,VWS V12.07,2013-08-14 21:19:00,
2013-08-14 16:20:00,66.1,45.9,30.05,NE,52,1.0,5.0,48,0.00,,BKN055,0.00,VWS V12.07,2013-08-14 21:20:00,
2013-08-14 16:24:00,65.8,45.6,30.05,NNE,14,2.0,6.0,48,0.00,,BKN055,0.00,VWS V12.07,2013-08-14 21:24:00,
2013-08-14 16:25:00,65.6,46.5,30.05,NE,47,3.0,3.0,50,0.00,,BKN055,0.00,VWS V12.07,2013-08-14 21:25:00,
2013-08-14 16:26:00,65.5,46.4,30.05,NE,42,4.0,5.0,50,0.00,,BKN055,0.00,VWS V12.07,2013-08-14 21:26:00,
2013-08-14 16:27:00,65.5,45.8,30.05,NNE,25,0.0,5.0,49,0.00,,BKN055,0.00,VWS V12.07,2013-08-14 21:27:00,
2013-08-14 16:29:00,65.2,46.6,30.05,NE,44,0.0,5.0,51,0.00,,BKN055,0.00,VWS V12.07,2013-08-14 21:29:00,
2013-08-14 16:30:00,65.2,46.1,30.05,NE,44,0.0,5.0,50,0.00,,BKN055,0.00,VWS V12.07,2013-08-14 21:30:00,
2013-08-14 16:31:00,65.2,46.1,30.05,NE,44,0.0,5.0,50,0.00,,BKN055,0.00,VWS V12.07,2013-08-14 21:31:00,
2013-08-14 16:32:00,65.0,47.0,30.05,NE,44,0.0,5.0,52,0.00,,BKN065,0.00,VWS V12.07,2013-08-14 21:32:00,
2013-08-14 16:34:00,65.0,46.5,30.05,NE,44,0.0,3.0,51,0.00,,BKN065,0.00,VWS V12.07,2013-08-14 21:34:00,
2013-08-14 16:36:00,64.8,45.7,30.05,SW,217,1.0,3.0,50,0.00,,BKN065,0.00,VWS V12.07,2013-08-14 21:36:00,
2013-08-14 16:37:00,64.8,45.7,30.05,SW,217,0.0,3.0,50,0.00,,BKN065,0.00,VWS V12.07,2013-08-14 21:37:00,
2013-08-14 16:40:00,64.8,46.3,30.05,North,7,0.0,5.0,51,0.00,,BKN065,0.00,VWS V12.07,2013-08-14 21:40:00,
2013-08-14 16:41:00,64.8,47.3,30.05,North,8,0.0,5.0,53,0.00,,BKN065,0.00,VWS V12.07,2013-08-14 21:41:00,
2013-08-14 16:42:00,64.8,47.3,30.05,North,8,0.0,5.0,53,0.00,,BKN065,0.00,VWS V12.07,2013-08-14 21:42:00,
2013-08-14 16:43:00,64.8,46.8,30.05,North,7,2.0,5.0,52,0.00,,BKN065,0.00,VWS V12.07,2013-08-14 21:43:00,
2013-08-14 16:45:00,64.8,45.7,30.05,NE,40,1.0,3.0,50,0.00,,BKN065,0.00,VWS V12.07,2013-08-14 21:45:00,
2013-08-14 16:46:00,64.8,46.8,30.05,NE,40,0.0,3.0,52,0.00,,BKN065,0.00,VWS V12.07,2013-08-14 21:46:00,
2013-08-14 16:47:00,64.8,46.8,30.05,NE,40,0.0,3.0,52,0.00,,BKN065,0.00,VWS V12.07,2013-08-14 21:47:00,
2013-08-14 16:48:00,64.8,46.8,30.05,WNW,301,1.0,4.0,52,0.00,,BKN065,0.00,VWS V12.07,2013-08-14 21:48:00,
2013-08-14 16:51:00,64.7,46.7,30.05,NE,34,0.0,4.0,52,0.00,,BKN065,0.00,VWS V12.07,2013-08-14 21:51:00,
2013-08-14 16:52:00,64.7,46.2,30.05,ENE,58,0.0,4.0,51,0.00,,BKN065,0.00,VWS V12.07,2013-08-14 21:52:00,
2013-08-14 16:53:00,64.7,46.2,30.05,ENE,58,0.0,4.0,51,0.00,,BKN065,0.00,VWS V12.07,2013-08-14 21:53:00,
2013-08-14 16:54:00,64.5,46.0,30.05,ENE,58,0.0,4.0,51,0.00,,BKN065,0.00,VWS V12.07,2013-08-14 21:54:00,
2013-08-14 16:56:00,64.5,45.5,30.05,ENE,58,0.0,1.0,50,0.00,,BKN065,0.00,VWS V12.07,2013-08-14 21:56:00,
2013-08-14 16:57:00,64.5,44.9,30.05,ENE,58,0.0,2.0,49,0.00,,BKN065,0.00,VWS V12.07,2013-08-14 21:57:00,
2013-08-14 16:58:00,64.5,44.4,30.05,ENE,58,0.0,2.0,48,0.00,,BKN065,0.00,VWS V12.07,2013-08-14 21:58:00,
2013-08-14 16:59:00,64.3,44.8,30.05,ENE,58,1.0,2.0,49,0.00,,BKN065,0.00,VWS V12.07,2013-08-14 21:59:00,
2013-08-14 17:01:00,64.3,45.3,30.05,NNE,32,0.0,3.0,50,0.00,,BKN065,0.00,VWS V12.07,2013-08-14 22:01:00,
2013-08-14 17:02:00,64.3,45.8,30.05,NNE,32,0.0,3.0,51,0.00,,BKN065,0.00,VWS V12.07,2013-08-14 22:02:00,
2013-08-14 17:04:00,64.3,45.3,30.05,NE,44,0.0,4.0,50,0.00,,BKN065,0.00,VWS V12.07,2013-08-14 22:04:00,
2013-08-14 17:05:00,64.3,45.3,30.05,ESE,108,4.0,4.0,50,0.00,,BKN065,0.00,VWS V12.07,2013-08-14 22:05:00,
2013-08-14 17:06:00,64.3,45.8,30.05,ESE,102,0.0,4.0,51,0.00,,BKN065,0.00,VWS V12.07,2013-08-14 22:06:00,
2013-08-14 17:07:00,64.3,46.3,30.05,ESE,102,0.0,4.0,52,0.00,,BKN065,0.00,VWS V12.07,2013-08-14 22:07:00,
2013-08-14 17:09:00,64.2,45.2,30.05,East,91,0.0,5.0,50,0.00,,BKN065,0.00,VWS V12.07,2013-08-14 22:09:00,
2013-08-14 17:10:00,64.2,45.2,30.05,East,91,0.0,5.0,50,0.00,,BKN065,0.00,VWS V12.07,2013-08-14 22:10:00,
2013-08-14 17:11:00,64.2,45.2,30.05,East,91,0.0,5.0,50,0.00,,BKN065,0.00,VWS V12.07,2013-08-14 22:11:00,
2013-08-14 17:12:00,64.2,45.2,30.05,East,91,0.0,5.0,50,0.00,,BKN065,0.00,VWS V12.07,2013-08-14 22:12:00,
2013-08-14 17:15:00,64.2,45.2,30.05,ENE,58,1.0,2.0,50,0.00,,BKN065,0.00,VWS V12.07,2013-08-14 22:15:00,
2013-08-14 17:17:00,64.0,45.5,30.05,ENE,58,0.0,2.0,51,0.00,,BKN065,0.00,VWS V12.07,2013-08-14 22:17:00,
2013-08-14 17:20:00,64.0,46.5,30.05,SE,127,0.0,2.0,53,0.00,,BKN065,0.00,VWS V12.07,2013-08-14 22:20:00,
2013-08-14 17:22:00,64.0,46.5,30.05,SE,127,0.0,2.0,53,0.00,,BKN065,0.00,VWS V12.07,2013-08-14 22:22:00,
2013-08-14 17:23:00,63.9,47.4,30.05,NE,51,3.0,5.0,55,0.00,,BKN065,0.00,VWS V12.07,2013-08-14 22:23:00,
2013-08-14 17:25:00,63.9,46.0,30.05,NE,51,2.0,5.0,52,0.00,,BKN065,0.00,VWS V12.07,2013-08-14 22:25:00,
2013-08-14 17:26:00,63.9,46.0,30.05,NE,56,0.0,5.0,52,0.00,,BKN065,0.00,VWS V12.07,2013-08-14 22:26:00,
2013-08-14 17:28:00,63.9,46.5,30.05,NE,56,0.0,5.0,53,0.00,,BKN065,0.00,VWS V12.07,2013-08-14 22:28:00,
2013-08-14 17:30:00,63.7,47.2,30.05,NE,45,2.0,5.0,55,0.00,,BKN065,0.00,VWS V12.07,2013-08-14 22:30:00,
2013-08-14 17:31:00,63.7,45.8,30.05,North,4,0.0,5.0,52,0.00,,BKN065,0.00,VWS V12.07,2013-08-14 22:31:00,
2013-08-14 17:32:00,63.5,47.1,30.05,North,4,0.0,5.0,55,0.00,,SCT055,0.00,VWS V12.07,2013-08-14 22:32:00,
2013-08-14 17:33:00,63.5,46.6,30.05,North,4,0.0,5.0,54,0.00,,SCT055,0.00,VWS V12.07,2013-08-14 22:33:00,
2013-08-14 17:35:00,63.5,45.6,30.05,North,8,2.0,3.0,52,0.00,,SCT055,0.00,VWS V12.07,2013-08-14 22:35:00,
2013-08-14 17:36:00,63.4,46.0,30.05,NNE,33,0.0,3.0,53,0.00,,SCT055,0.00,VWS V12.07,2013-08-14 22:36:00,
2013-08-14 17:37:00,63.4,46.0,30.05,NNE,33,0.0,3.0,53,0.00,,SCT055,0.00,VWS V12.07,2013-08-14 22:37:00,
2013-08-14 17:38:00,63.4,46.5,30.05,NNE,33,0.0,3.0,54,0.00,,SCT055,0.00,VWS V12.07,2013-08-14 22:38:00,
2013-08-14 17:40:00,63.4,47.5,30.05,NNE,33,0.0,3.0,56,0.00,,SCT055,0.00,VWS V12.07,2013-08-14 22:40:00,
2013-08-14 17:42:00,63.4,47.0,30.05,NNE,32,0.0,3.0,55,0.00,,SCT055,0.00,VWS V12.07,2013-08-14 22:42:00,
2013-08-14 17:43:00,63.2,47.3,30.05,NNE,32,0.0,3.0,56,0.00,,SCT055,0.00,VWS V12.07,2013-08-14 22:43:00,
2013-08-14 17:46:00,63.1,47.2,30.05,NNE,32,0.0,1.0,56,0.00,,SCT055,0.00,VWS V12.07,2013-08-14 22:46:00,
2013-08-14 17:47:00,63.1,47.2,30.05,NNE,32,0.0,1.0,56,0.00,,SCT055,0.00,VWS V12.07,2013-08-14 22:47:00,
2013-08-14 17:48:00,63.1,47.2,30.05,WNW,289,1.0,2.0,56,0.00,,SCT055,0.00,VWS V12.07,2013-08-14 22:48:00,
2013-08-14 17:49:00,63.1,45.7,30.05,WNW,289,0.0,2.0,53,0.00,,SCT055,0.00,VWS V12.07,2013-08-14 22:49:00,
2013-08-14 17:52:00,62.9,46.5,30.05,ENE,75,1.0,3.0,55,0.00,,SCT055,0.00,VWS V12.07,2013-08-14 22:52:00,
2013-08-14 17:53:00,62.9,46.5,30.05,ENE,75,0.0,3.0,55,0.00,,SCT055,0.00,VWS V12.07,2013-08-14 22:53:00,
2013-08-14 17:54:00,62.9,47.5,30.05,ENE,75,0.0,2.0,57,0.00,,SCT055,0.00,VWS V12.07,2013-08-14 22:54:00,
2013-08-14 17:57:00,62.7,45.3,30.04,NE,55,0.0,2.0,53,0.00,,SCT055,0.00,VWS V12.07,2013-08-14 22:57:00,
2013-08-14 17:59:00,62.7,46.8,30.04,NE,55,1.0,2.0,56,0.00,,SCT055,0.00,VWS V12.07,2013-08-14 22:59:00,
2013-08-14 18:03:00,62.6,46.7,30.04,NE,55,0.0,2.0,56,0.00,,SCT055,0.00,VWS V12.07,2013-08-14 23:03:00,
2013-08-14 18:04:00,62.6,46.7,30.04,NE,55,0.0,2.0,56,0.00,,SCT055,0.00,VWS V12.07,2013-08-14 23:04:00,
2013-08-14 18:05:00,62.6,46.7,30.04,NE,55,0.0,0.0,56,0.00,,SCT055,0.00,VWS V12.07,2013-08-14 23:05:00,
2013-08-14 18:06:00,62.4,47.0,30.04,NE,55,0.0,0.0,57,0.00,,SCT055,0.00,VWS V12.07,2013-08-14 23:06:00,
2013-08-14 18:08:00,62.4,46.0,30.04,SE,143,0.0,2.0,55,0.00,,SCT055,0.00,VWS V12.07,2013-08-14 23:08:00,
2013-08-14 18:09:00,62.4,46.0,30.04,SE,143,1.0,2.0,55,0.00,,SCT055,0.00,VWS V12.07,2013-08-14 23:09:00,
2013-08-14 18:10:00,62.4,46.5,30.04,SE,126,0.0,3.0,56,0.00,,SCT055,0.00,VWS V12.07,2013-08-14 23:10:00,
2013-08-14 18:11:00,62.4,44.6,30.04,ESE,111,1.0,4.0,52,0.00,,SCT055,0.00,VWS V12.07,2013-08-14 23:11:00,
2013-08-14 18:13:00,62.4,45.1,30.05,ENE,60,0.0,4.0,53,0.00,,SCT055,0.00,VWS V12.07,2013-08-14 23:13:00,
2013-08-14 18:15:00,62.4,45.5,30.05,ENE,60,0.0,1.0,54,0.00,,SCT055,0.00,VWS V12.07,2013-08-14 23:15:00,
2013-08-14 18:16:00,62.4,46.0,30.05,ENE,60,0.0,1.0,55,0.00,,SCT055,0.00,VWS V12.07,2013-08-14 23:16:00,
2013-08-14 18:17:00,62.3,46.4,30.05,ENE,60,0.0,2.0,56,0.00,,SCT055,0.00,VWS V12.07,2013-08-14 23:17:00,
2013-08-14 18:19:00,62.3,46.0,30.05,ENE,70,0.0,2.0,55,0.00,,SCT055,0.00,VWS V12.07,2013-08-14 23:19:00,
2013-08-14 18:21:00,62.1,44.8,30.05,East,89,0.0,3.0,53,0.00,,SCT055,0.00,VWS V12.07,2013-08-14 23:21:00,
2013-08-14 18:22:00,62.1,45.8,30.05,East,89,0.0,3.0,55,0.00,,SCT055,0.00,VWS V12.07,2013-08-14 23:22:00,
2013-08-14 18:24:00,62.0,44.2,30.05,East,85,2.0,3.0,52,0.00,,SCT055,0.00,VWS V12.07,2013-08-14 23:24:00,
2013-08-14 18:26:00,62.0,44.7,30.05,East,85,0.0,3.0,53,0.00,,SCT055,0.00,VWS V12.07,2013-08-14 23:26:00,
2013-08-14 18:27:00,62.0,44.7,30.04,East,85,0.0,3.0,53,0.00,,SCT055,0.00,VWS V12.07,2013-08-14 23:27:00,
2013-08-14 18:29:00,62.0,45.2,30.04,East,83,1.0,3.0,54,0.00,,SCT055,0.00,VWS V12.07,2013-08-14 23:29:00,
2013-08-14 18:31:00,61.8,45.0,30.04,East,82,0.0,3.0,54,0.00,,SCT055,0.00,VWS V12.07,2013-08-14 23:31:00,
2013-08-14 18:32:00,61.8,45.0,30.04,East,82,0.0,3.0,54,0.00,,CLR,0.00,VWS V12.07,2013-08-14 23:32:00,
2013-08-14 18:34:00,61.6,45.8,30.04,East,82,0.0,3.0,56,0.00,,CLR,0.00,VWS V12.07,2013-08-14 23:34:00,
2013-08-14 18:36:00,61.5,44.7,30.04,NNE,25,0.0,4.0,54,0.00,,CLR,0.00,VWS V12.07,2013-08-14 23:36:00,
2013-08-14 18:37:00,61.5,45.7,30.04,NNE,25,0.0,4.0,56,0.00,,CLR,0.00,VWS V12.07,2013-08-14 23:37:00,
2013-08-14 18:38:00,61.5,45.7,30.04,NNE,25,1.0,4.0,56,0.00,,CLR,0.00,VWS V12.07,2013-08-14 23:38:00,
2013-08-14 18:39:00,61.3,45.0,30.04,NE,46,2.0,4.0,55,0.00,,CLR,0.00,VWS V12.07,2013-08-14 23:39:00,
2013-08-14 18:41:00,61.3,46.0,30.04,NE,46,0.0,4.0,57,0.00,,CLR,0.00,VWS V12.07,2013-08-14 23:41:00,
2013-08-14 18:43:00,61.2,46.3,30.05,NE,46,0.0,4.0,58,0.00,,CLR,0.00,VWS V12.07,2013-08-14 23:43:00,
2013-08-14 18:45:00,61.0,45.2,30.05,NNE,20,0.0,5.0,56,0.00,,CLR,0.00,VWS V12.07,2013-08-14 23:45:00,
2013-08-14 18:46:00,61.0,44.7,30.05,NNE,20,1.0,5.0,55,0.00,,CLR,0.00,VWS V12.07,2013-08-14 23:46:00,
2013-08-14 18:48:00,61.0,44.7,30.05,NNE,20,0.0,5.0,55,0.00,,CLR,0.00,VWS V12.07,2013-08-14 23:48:00,
2013-08-14 18:49:00,61.0,44.7,30.05,NNE,20,0.0,5.0,55,0.00,,CLR,0.00,VWS V12.07,2013-08-14 23:49:00,
2013-08-14 18:50:00,61.0,45.2,30.05,South,175,0.0,5.0,56,0.00,,CLR,0.00,VWS V12.07,2013-08-14 23:50:00,
2013-08-14 18:52:00,61.0,45.7,30.05,South,175,0.0,5.0,57,0.00,,CLR,0.00,VWS V12.07,2013-08-14 23:52:00,
2013-08-14 18:53:00,61.0,45.7,30.05,South,175,0.0,5.0,57,0.00,,CLR,0.00,VWS V12.07,2013-08-14 23:53:00,
2013-08-14 18:54:00,61.0,45.7,30.05,South,175,0.0,5.0,57,0.00,,CLR,0.00,VWS V12.07,2013-08-14 23:54:00,
2013-08-14 18:55:00,60.9,45.6,30.05,South,175,0.0,0.0,57,0.00,,CLR,0.00,VWS V12.07,2013-08-14 23:55:00,
2013-08-14 18:57:00,60.9,45.6,30.04,South,175,0.0,0.0,57,0.00,,CLR,0.00,VWS V12.07,2013-08-14 23:57:00,
2013-08-14 18:59:00,60.7,45.4,30.04,South,175,0.0,0.0,57,0.00,,CLR,0.00,VWS V12.07,2013-08-14 23:59:00,
2013-08-14 19:01:00,60.7,45.8,30.04,South,175,0.0,0.0,58,0.00,,CLR,0.00,VWS V12.07,2013-08-15 00:01:00,
2013-08-14 19:04:00,60.4,45.1,30.04,South,175,0.0,1.0,57,0.00,,CLR,0.00,VWS V12.07,2013-08-15 00:04:00,
2013-08-14 19:05:00,60.4,45.6,30.04,South,175,0.0,1.0,58,0.00,,CLR,0.00,VWS V12.07,2013-08-15 00:05:00,
2013-08-14 19:06:00,60.2,45.4,30.04,South,175,0.0,1.0,58,0.00,,CLR,0.00,VWS V12.07,2013-08-15 00:06:00,
2013-08-14 19:09:00,60.1,45.7,30.04,South,175,0.0,1.0,59,0.00,,CLR,0.00,VWS V12.07,2013-08-15 00:09:00,
2013-08-14 19:10:00,59.9,46.0,30.04,South,175,0.0,1.0,60,0.00,,CLR,0.00,VWS V12.07,2013-08-15 00:10:00,
2013-08-14 19:11:00,59.9,45.5,30.04,South,175,0.0,1.0,59,0.00,,CLR,0.00,VWS V12.07,2013-08-15 00:11:00,
2013-08-14 19:15:00,59.6,45.7,30.04,South,175,0.0,0.0,60,0.00,,CLR,0.00,VWS V12.07,2013-08-15 00:15:00,
2013-08-14 19:16:00,59.6,45.7,30.04,South,175,0.0,0.0,60,0.00,,CLR,0.00,VWS V12.07,2013-08-15 00:16:00,
2013-08-14 19:20:00,59.3,45.4,30.04,South,175,0.0,0.0,60,0.00,,CLR,0.00,VWS V12.07,2013-08-15 00:20:00,
2013-08-14 19:21:00,59.3,45.4,30.04,South,175,0.0,0.0,60,0.00,,CLR,0.00,VWS V12.07,2013-08-15 00:21:00,
2013-08-14 19:22:00,59.2,45.3,30.04,South,175,0.0,0.0,60,0.00,,CLR,0.00,VWS V12.07,2013-08-15 00:22:00,
2013-08-14 19:25:00,59.0,45.6,30.04,South,175,0.0,0.0,61,0.00,,CLR,0.00,VWS V12.07,2013-08-15 00:25:00,
2013-08-14 19:26:00,59.0,46.0,30.04,South,175,0.0,0.0,62,0.00,,CLR,0.00,VWS V12.07,2013-08-15 00:26:00,
2013-08-14 19:27:00,58.9,45.9,30.04,South,175,0.0,0.0,62,0.00,,CLR,0.00,VWS V12.07,2013-08-15 00:27:00,
2013-08-14 19:30:00,58.7,46.2,30.04,South,175,0.0,0.0,63,0.00,,CLR,0.00,VWS V12.07,2013-08-15 00:30:00,
2013-08-14 19:31:00,58.7,46.2,30.04,South,175,0.0,0.0,63,0.00,,CLR,0.00,VWS V12.07,2013-08-15 00:31:00,
2013-08-14 19:32:00,58.7,46.2,30.04,South,175,0.0,0.0,63,0.00,,CLR,0.00,VWS V12.07,2013-08-15 00:32:00,
2013-08-14 19:35:00,58.6,45.6,30.04,South,175,0.0,0.0,62,0.00,,CLR,0.00,VWS V12.07,2013-08-15 00:35:00,
2013-08-14 19:36:00,58.6,45.6,30.04,South,175,0.0,0.0,62,0.00,,CLR,0.00,VWS V12.07,2013-08-15 00:36:00,
2013-08-14 19:37:00,58.4,45.9,30.04,South,175,0.0,0.0,63,0.00,,CLR,0.00,VWS V12.07,2013-08-15 00:37:00,
2013-08-14 19:41:00,58.3,46.6,30.04,South,175,0.0,0.0,65,0.00,,CLR,0.00,VWS V12.07,2013-08-15 00:41:00,
2013-08-14 19:42:00,58.1,46.8,30.04,South,175,0.0,0.0,66,0.00,,CLR,0.00,VWS V12.07,2013-08-15 00:42:00,
2013-08-14 19:43:00,58.1,46.4,30.04,South,175,0.0,0.0,65,0.00,,CLR,0.00,VWS V12.07,2013-08-15 00:43:00,
2013-08-14 19:46:00,58.0,46.7,30.04,South,175,0.0,0.0,66,0.00,,CLR,0.00,VWS V12.07,2013-08-15 00:46:00,
2013-08-14 19:47:00,58.0,46.7,30.04,South,175,0.0,0.0,66,0.00,,CLR,0.00,VWS V12.07,2013-08-15 00:47:00,
2013-08-14 19:48:00,57.8,46.1,30.04,South,175,0.0,0.0,65,0.00,,CLR,0.00,VWS V12.07,2013-08-15 00:48:00,
2013-08-14 19:51:00,57.6,46.7,30.04,South,175,0.0,0.0,67,0.00,,CLR,0.00,VWS V12.07,2013-08-15 00:51:00,
2013-08-14 19:52:00,57.6,46.7,30.04,South,175,0.0,0.0,67,0.00,,CLR,0.00,VWS V12.07,2013-08-15 00:52:00,
2013-08-14 19:53:00,57.5,46.6,30.04,South,175,0.0,0.0,67,0.00,,CLR,0.00,VWS V12.07,2013-08-15 00:53:00,
2013-08-14 19:54:00,57.5,46.6,30.04,South,175,0.0,0.0,67,0.00,,CLR,0.00,VWS V12.07,2013-08-15 00:54:00,
2013-08-14 19:56:00,57.3,46.8,30.04,South,175,0.0,0.0,68,0.00,,CLR,0.00,VWS V12.07,2013-08-15 00:56:00,
2013-08-14 19:57:00,57.3,46.8,30.04,South,175,0.0,0.0,68,0.00,,CLR,0.00,VWS V12.07,2013-08-15 00:57:00,
2013-08-14 19:58:00,57.2,46.8,30.03,South,175,0.0,0.0,68,0.00,,CLR,0.00,VWS V12.07,2013-08-15 00:58:00,
2013-08-14 19:59:00,57.2,46.8,30.03,South,175,0.0,0.0,68,0.00,,CLR,0.00,VWS V12.07,2013-08-15 00:59:00,
2013-08-14 20:01:00,57.0,46.6,30.03,South,175,0.0,0.0,68,0.00,,CLR,0.00,VWS V12.07,2013-08-15 01:01:00,
2013-08-14 20:02:00,57.0,46.6,30.03,South,175,0.0,0.0,68,0.00,,CLR,0.00,VWS V12.07,2013-08-15 01:02:00,
2013-08-14 20:03:00,56.9,46.5,30.03,South,175,0.0,0.0,68,0.00,,CLR,0.00,VWS V12.07,2013-08-15 01:03:00,
2013-08-14 20:04:00,56.9,46.5,30.03,South,175,0.0,0.0,68,0.00,,CLR,0.00,VWS V12.07,2013-08-15 01:04:00,
2013-08-14 20:06:00,56.7,46.7,30.03,South,175,0.0,0.0,69,0.00,,CLR,0.00,VWS V12.07,2013-08-15 01:06:00,
2013-08-14 20:07:00,56.7,46.7,30.03,South,175,0.0,0.0,69,0.00,,CLR,0.00,VWS V12.07,2013-08-15 01:07:00,
2013-08-14 20:08:00,56.6,46.6,30.03,South,175,0.0,0.0,69,0.00,,CLR,0.00,VWS V12.07,2013-08-15 01:08:00,
2013-08-14 20:09:00,56.6,46.6,30.03,South,175,0.0,0.0,69,0.00,,CLR,0.00,VWS V12.07,2013-08-15 01:09:00,
2013-08-14 20:12:00,56.5,46.5,30.03,South,175,0.0,0.0,69,0.00,,CLR,0.00,VWS V12.07,2013-08-15 01:12:00,
2013-08-14 20:13:00,56.5,46.5,30.03,South,175,0.0,0.0,69,0.00,,CLR,0.00,VWS V12.07,2013-08-15 01:13:00,
2013-08-14 20:14:00,56.5,46.5,30.03,South,175,0.0,0.0,69,0.00,,CLR,0.00,VWS V12.07,2013-08-15 01:14:00,
2013-08-14 20:17:00,56.2,45.8,30.03,South,175,0.0,0.0,68,0.00,,CLR,0.00,VWS V12.07,2013-08-15 01:17:00,
2013-08-14 20:18:00,56.2,45.8,30.03,South,175,0.0,0.0,68,0.00,,CLR,0.00,VWS V12.07,2013-08-15 01:18:00,
2013-08-14 20:19:00,56.2,45.8,30.03,South,175,0.0,0.0,68,0.00,,CLR,0.00,VWS V12.07,2013-08-15 01:19:00,
2013-08-14 20:20:00,56.2,45.8,30.03,South,175,0.0,0.0,68,0.00,,CLR,0.00,VWS V12.07,2013-08-15 01:20:00,
2013-08-14 20:23:00,56.0,45.6,30.03,South,175,0.0,0.0,68,0.00,,CLR,0.00,VWS V12.07,2013-08-15 01:23:00,
2013-08-14 20:24:00,56.0,45.6,30.03,South,175,0.0,0.0,68,0.00,,CLR,0.00,VWS V12.07,2013-08-15 01:24:00,
2013-08-14 20:25:00,55.9,45.9,30.03,South,175,0.0,0.0,69,0.00,,CLR,0.00,VWS V12.07,2013-08-15 01:25:00,
2013-08-14 20:28:00,55.9,46.3,30.04,South,175,0.0,0.0,70,0.00,,CLR,0.00,VWS V12.07,2013-08-15 01:28:00,
2013-08-14 20:29:00,55.9,46.3,30.04,South,175,0.0,0.0,70,0.00,,CLR,0.00,VWS V12.07,2013-08-15 01:29:00,
2013-08-14 20:30:00,55.7,45.7,30.04,South,175,0.0,0.0,69,0.00,,CLR,0.00,VWS V12.07,2013-08-15 01:30:00,
2013-08-14 20:34:00,55.7,45.3,30.04,South,175,0.0,0.0,68,0.00,,CLR,0.00,VWS V12.07,2013-08-15 01:34:00,
2013-08-14 20:35:00,55.7,45.7,30.04,South,175,0.0,0.0,69,0.00,,CLR,0.00,VWS V12.07,2013-08-15 01:35:00,
2013-08-14 20:36:00,55.7,45.7,30.04,South,175,0.0,0.0,69,0.00,,CLR,0.00,VWS V12.07,2013-08-15 01:36:00,
2013-08-14 20:39:00,55.6,45.6,30.04,South,175,0.0,0.0,69,0.00,,CLR,0.00,VWS V12.07,2013-08-15 01:39:00,
2013-08-14 20:40:00,55.6,45.6,30.04,South,175,0.0,0.0,69,0.00,,CLR,0.00,VWS V12.07,2013-08-15 01:40:00,
2013-08-14 20:41:00,55.6,46.0,30.04,South,175,0.0,0.0,70,0.00,,CLR,0.00,VWS V12.07,2013-08-15 01:41:00,
2013-08-14 20:45:00,55.4,46.5,30.04,South,175,0.0,0.0,72,0.00,,CLR,0.00,VWS V12.07,2013-08-15 01:45:00,
2013-08-14 20:46:00,55.3,46.4,30.04,South,175,0.0,0.0,72,0.00,,CLR,0.00,VWS V12.07,2013-08-15 01:46:00,
2013-08-14 20:50:00,55.1,46.6,30.04,South,175,0.0,0.0,73,0.00,,CLR,0.00,VWS V12.07,2013-08-15 01:50:00,
2013-08-14 20:51:00,55.1,46.6,30.04,South,175,0.0,0.0,73,0.00,,CLR,0.00,VWS V12.07,2013-08-15 01:51:00,
2013-08-14 20:52:00,55.1,47.0,30.04,South,175,0.0,0.0,74,0.00,,CLR,0.00,VWS V12.07,2013-08-15 01:52:00,
2013-08-14 20:55:00,55.0,46.9,30.04,South,175,0.0,0.0,74,0.00,,CLR,0.00,VWS V12.07,2013-08-15 01:55:00,
2013-08-14 20:56:00,54.8,46.7,30.04,South,175,0.0,0.0,74,0.00,,CLR,0.00,VWS V12.07,2013-08-15 01:56:00,
2013-08-14 20:57:00,54.8,46.7,30.04,South,175,0.0,0.0,74,0.00,,CLR,0.00,VWS V12.07,2013-08-15 01:57:00,
2013-08-14 21:00:00,54.7,46.9,30.03,South,175,0.0,0.0,75,0.00,,CLR,0.00,VWS V12.07,2013-08-15 02:00:00,
2013-08-14 21:01:00,54.7,46.9,30.03,South,175,0.0,0.0,75,0.00,,CLR,0.00,VWS V12.07,2013-08-15 02:01:00,
2013-08-14 21:02:00,54.7,46.9,30.03,South,175,0.0,0.0,75,0.00,,CLR,0.00,VWS V12.07,2013-08-15 02:02:00,
2013-08-14 21:05:00,54.5,47.1,30.03,South,175,0.0,0.0,76,0.00,,CLR,0.00,VWS V12.07,2013-08-15 02:05:00,
2013-08-14 21:06:00,54.4,47.0,30.03,South,175,0.0,0.0,76,0.00,,CLR,0.00,VWS V12.07,2013-08-15 02:06:00,
2013-08-14 21:07:00,54.4,47.0,30.03,South,175,0.0,0.0,76,0.00,,CLR,0.00,VWS V12.07,2013-08-15 02:07:00,
2013-08-14 21:11:00,54.1,46.7,30.03,South,175,0.0,0.0,76,0.00,,CLR,0.00,VWS V12.07,2013-08-15 02:11:00,
2013-08-14 21:12:00,54.1,47.1,30.03,South,175,0.0,0.0,77,0.00,,CLR,0.00,VWS V12.07,2013-08-15 02:12:00,
2013-08-14 21:16:00,53.9,46.9,30.03,South,175,0.0,0.0,77,0.00,,CLR,0.00,VWS V12.07,2013-08-15 02:16:00,
2013-08-14 21:17:00,53.9,46.9,30.03,South,175,0.0,0.0,77,0.00,,CLR,0.00,VWS V12.07,2013-08-15 02:17:00,
2013-08-14 21:18:00,53.8,47.1,30.03,South,175,0.0,0.0,78,0.00,,CLR,0.00,VWS V12.07,2013-08-15 02:18:00,
2013-08-14 21:21:00,53.6,46.9,30.03,South,175,0.0,0.0,78,0.00,,CLR,0.00,VWS V12.07,2013-08-15 02:21:00,
2013-08-14 21:22:00,53.6,46.9,30.03,South,175,0.0,0.0,78,0.00,,CLR,0.00,VWS V12.07,2013-08-15 02:22:00,
2013-08-14 21:23:00,53.6,46.9,30.03,South,175,0.0,0.0,78,0.00,,CLR,0.00,VWS V12.07,2013-08-15 02:23:00,
2013-08-14 21:26:00,53.5,46.8,30.03,South,175,0.0,0.0,78,0.00,,CLR,0.00,VWS V12.07,2013-08-15 02:26:00,
2013-08-14 21:28:00,53.3,46.6,30.04,South,175,0.0,0.0,78,0.00,,CLR,0.00,VWS V12.07,2013-08-15 02:28:00,
2013-08-14 21:31:00,53.1,46.4,30.04,South,175,0.0,0.0,78,0.00,,CLR,0.00,VWS V12.07,2013-08-15 02:31:00,
2013-08-14 21:33:00,52.9,46.2,30.04,South,175,0.0,0.0,78,0.00,,CLR,0.00,VWS V12.07,2013-08-15 02:33:00,
2013-08-14 21:34:00,52.9,46.2,30.04,South,175,0.0,0.0,78,0.00,,CLR,0.00,VWS V12.07,2013-08-15 02:34:00,
2013-08-14 21:37:00,52.6,46.3,30.04,South,175,0.0,0.0,79,0.00,,CLR,0.00,VWS V12.07,2013-08-15 02:37:00,
2013-08-14 21:38:00,52.5,46.5,30.04,South,175,0.0,0.0,80,0.00,,CLR,0.00,VWS V12.07,2013-08-15 02:38:00,
2013-08-14 21:39:00,52.5,46.5,30.04,South,175,0.0,0.0,80,0.00,,CLR,0.00,VWS V12.07,2013-08-15 02:39:00,
2013-08-14 21:42:00,52.3,46.3,30.04,South,175,0.0,0.0,80,0.00,,CLR,0.00,VWS V12.07,2013-08-15 02:42:00,
2013-08-14 21:44:00,52.2,46.2,30.04,South,175,0.0,0.0,80,0.00,,CLR,0.00,VWS V12.07,2013-08-15 02:44:00,
2013-08-14 21:45:00,52.2,46.5,30.04,South,175,0.0,0.0,81,0.00,,CLR,0.00,VWS V12.07,2013-08-15 02:45:00,
2013-08-14 21:47:00,52.0,46.4,30.04,South,175,0.0,0.0,81,0.00,,CLR,0.00,VWS V12.07,2013-08-15 02:47:00,
2013-08-14 21:49:00,51.9,46.3,30.04,South,175,0.0,0.0,81,0.00,,CLR,0.00,VWS V12.07,2013-08-15 02:49:00,
2013-08-14 21:50:00,51.9,46.3,30.04,South,175,0.0,0.0,81,0.00,,CLR,0.00,VWS V12.07,2013-08-15 02:50:00,
2013-08-14 21:52:00,51.7,46.4,30.04,South,175,0.0,0.0,82,0.00,,CLR,0.00,VWS V12.07,2013-08-15 02:52:00,
2013-08-14 21:54:00,51.7,46.4,30.04,South,175,0.0,0.0,82,0.00,,CLR,0.00,VWS V12.07,2013-08-15 02:54:00,
2013-08-14 21:55:00,51.6,46.3,30.04,South,175,0.0,0.0,82,0.00,,CLR,0.00,VWS V12.07,2013-08-15 02:55:00,
2013-08-14 21:56:00,51.6,46.6,30.04,South,175,0.0,0.0,83,0.00,,CLR,0.00,VWS V12.07,2013-08-15 02:56:00,
2013-08-14 21:58:00,51.6,46.6,30.03,South,175,0.0,0.0,83,0.00,,CLR,0.00,VWS V12.07,2013-08-15 02:58:00,
2013-08-14 22:00:00,51.4,46.4,30.03,South,175,0.0,0.0,83,0.00,,CLR,0.00,VWS V12.07,2013-08-15 03:00:00,
2013-08-14 22:01:00,51.4,46.4,30.03,South,175,0.0,0.0,83,0.00,,CLR,0.00,VWS V12.07,2013-08-15 03:01:00,
2013-08-14 22:03:00,51.4,46.7,30.03,South,175,0.0,0.0,84,0.00,,CLR,0.00,VWS V12.07,2013-08-15 03:03:00,
2013-08-14 22:05:00,51.3,46.3,30.03,South,175,0.0,0.0,83,0.00,,CLR,0.00,VWS V12.07,2013-08-15 03:05:00,
2013-08-14 22:06:00,51.3,46.3,30.03,South,175,0.0,0.0,83,0.00,,CLR,0.00,VWS V12.07,2013-08-15 03:06:00,
2013-08-14 22:09:00,51.1,46.1,30.03,South,175,0.0,0.0,83,0.00,,CLR,0.00,VWS V12.07,2013-08-15 03:09:00,
2013-08-14 22:10:00,51.1,46.1,30.03,South,175,0.0,0.0,83,0.00,,CLR,0.00,VWS V12.07,2013-08-15 03:10:00,
2013-08-14 22:11:00,51.1,46.1,30.03,South,175,0.0,0.0,83,0.00,,CLR,0.00,VWS V12.07,2013-08-15 03:11:00,
2013-08-14 22:12:00,51.1,46.1,30.03,South,175,0.0,0.0,83,0.00,,CLR,0.00,VWS V12.07,2013-08-15 03:12:00,
2013-08-14 22:14:00,51.0,46.3,30.03,South,175,0.0,0.0,84,0.00,,CLR,0.00,VWS V12.07,2013-08-15 03:14:00,
2013-08-14 22:15:00,51.0,46.3,30.03,South,175,0.0,0.0,84,0.00,,CLR,0.00,VWS V12.07,2013-08-15 03:15:00,
2013-08-14 22:16:00,51.0,46.3,30.03,South,175,0.0,0.0,84,0.00,,CLR,0.00,VWS V12.07,2013-08-15 03:16:00,
2013-08-14 22:17:00,51.0,46.3,30.03,South,175,0.0,0.0,84,0.00,,CLR,0.00,VWS V12.07,2013-08-15 03:17:00,
2013-08-14 22:20:00,50.7,45.7,30.03,South,175,0.0,0.0,83,0.00,,CLR,0.00,VWS V12.07,2013-08-15 03:20:00,
2013-08-14 22:21:00,50.7,45.7,30.03,South,175,0.0,0.0,83,0.00,,CLR,0.00,VWS V12.07,2013-08-15 03:21:00,
2013-08-14 22:22:00,50.7,45.7,30.03,South,175,0.0,0.0,83,0.00,,CLR,0.00,VWS V12.07,2013-08-15 03:22:00,
2013-08-14 22:23:00,50.7,45.7,30.03,South,175,0.0,0.0,83,0.00,,CLR,0.00,VWS V12.07,2013-08-15 03:23:00,
2013-08-14 22:25:00,50.5,45.8,30.03,South,175,0.0,0.0,84,0.00,,CLR,0.00,VWS V12.07,2013-08-15 03:25:00,
2013-08-14 22:26:00,50.5,45.8,30.03,South,175,0.0,0.0,84,0.00,,CLR,0.00,VWS V12.07,2013-08-15 03:26:00,
2013-08-14 22:28:00,50.4,45.8,30.03,South,175,0.0,0.0,84,0.00,,CLR,0.00,VWS V12.07,2013-08-15 03:28:00,
2013-08-14 22:30:00,50.4,46.1,30.03,South,175,0.0,0.0,85,0.00,,CLR,0.00,VWS V12.07,2013-08-15 03:30:00,
2013-08-14 22:31:00,50.4,46.1,30.03,South,175,0.0,0.0,85,0.00,,CLR,0.00,VWS V12.07,2013-08-15 03:31:00,
2013-08-14 22:33:00,50.2,46.2,30.03,South,175,0.0,0.0,86,0.00,,CLR,0.00,VWS V12.07,2013-08-15 03:33:00,
2013-08-14 22:34:00,50.2,46.2,30.03,South,175,0.0,0.0,86,0.00,,CLR,0.00,VWS V12.07,2013-08-15 03:34:00,
2013-08-14 22:35:00,50.2,46.5,30.03,South,175,0.0,0.0,87,0.00,,CLR,0.00,VWS V12.07,2013-08-15 03:35:00,
2013-08-14 22:36:00,50.2,46.5,30.03,South,175,0.0,0.0,87,0.00,,CLR,0.00,VWS V12.07,2013-08-15 03:36:00,
2013-08-14 22:37:00,50.2,46.8,30.03,South,175,0.0,0.0,88,0.00,,CLR,0.00,VWS V12.07,2013-08-15 03:37:00,
2013-08-14 22:38:00,50.2,46.8,30.03,South,175,0.0,0.0,88,0.00,,CLR,0.00,VWS V12.07,2013-08-15 03:38:00,
2013-08-14 22:39:00,50.2,46.8,30.03,South,175,0.0,0.0,88,0.00,,CLR,0.00,VWS V12.07,2013-08-15 03:39:00,
2013-08-14 22:41:00,50.4,47.6,30.03,South,175,0.0,0.0,90,0.00,,CLR,0.00,VWS V12.07,2013-08-15 03:41:00,
2013-08-14 22:42:00,50.4,47.6,30.03,South,175,0.0,0.0,90,0.00,,CLR,0.00,VWS V12.07,2013-08-15 03:42:00,
2013-08-14 22:44:00,50.4,47.6,30.03,South,175,0.0,0.0,90,0.00,,CLR,0.00,VWS V12.07,2013-08-15 03:44:00,
2013-08-14 22:45:00,50.2,47.4,30.03,South,175,0.0,0.0,90,0.00,,CLR,0.00,VWS V12.07,2013-08-15 03:45:00,
2013-08-14 22:46:00,50.2,47.4,30.03,South,175,0.0,0.0,90,0.00,,CLR,0.00,VWS V12.07,2013-08-15 03:46:00,
2013-08-14 22:48:00,50.2,47.7,30.03,South,175,0.0,0.0,91,0.00,,CLR,0.00,VWS V12.07,2013-08-15 03:48:00,
2013-08-14 22:49:00,50.2,47.4,30.03,South,175,0.0,0.0,90,0.00,,CLR,0.00,VWS V12.07,2013-08-15 03:49:00,
2013-08-14 22:50:00,50.2,47.4,30.03,South,175,0.0,0.0,90,0.00,,CLR,0.00,VWS V12.07,2013-08-15 03:50:00,
2013-08-14 22:51:00,50.2,47.4,30.03,South,175,0.0,0.0,90,0.00,,CLR,0.00,VWS V12.07,2013-08-15 03:51:00,
2013-08-14 22:53:00,50.2,47.7,30.03,South,175,0.0,0.0,91,0.00,,CLR,0.00,VWS V12.07,2013-08-15 03:53:00,
2013-08-14 22:54:00,50.2,47.7,30.03,South,175,0.0,0.0,91,0.00,,CLR,0.00,VWS V12.07,2013-08-15 03:54:00,
2013-08-14 22:55:00,50.2,48.0,30.03,South,175,0.0,0.0,92,0.00,,CLR,0.00,VWS V12.07,2013-08-15 03:55:00,
2013-08-14 22:56:00,50.2,48.3,30.03,South,175,0.0,0.0,93,0.00,,CLR,0.00,VWS V12.07,2013-08-15 03:56:00,
2013-08-14 22:57:00,50.2,48.3,30.03,South,175,0.0,0.0,93,0.00,,CLR,0.00,VWS V12.07,2013-08-15 03:57:00,
2013-08-14 22:58:00,50.2,48.8,30.03,South,175,0.0,0.0,95,0.00,,CLR,0.00,VWS V12.07,2013-08-15 03:58:00,
2013-08-14 22:59:00,50.2,48.8,30.03,South,175,0.0,0.0,95,0.00,,CLR,0.00,VWS V12.07,2013-08-15 03:59:00,
2013-08-14 23:00:00,50.1,48.7,30.03,South,175,0.0,0.0,95,0.00,,CLR,0.00,VWS V12.07,2013-08-15 04:00:00,
2013-08-14 23:01:00,50.1,48.4,30.03,South,175,0.0,0.0,94,0.00,,CLR,0.00,VWS V12.07,2013-08-15 04:01:00,
2013-08-14 23:02:00,50.1,48.4,30.03,South,175,0.0,0.0,94,0.00,,CLR,0.00,VWS V12.07,2013-08-15 04:02:00,
2013-08-14 23:06:00,49.9,48.0,30.03,South,175,0.0,0.0,93,0.00,,CLR,0.00,VWS V12.07,2013-08-15 04:06:00,
2013-08-14 23:07:00,49.9,48.0,30.03,South,175,0.0,0.0,93,0.00,,CLR,0.00,VWS V12.07,2013-08-15 04:07:00,
2013-08-14 23:11:00,49.8,48.2,30.03,South,175,0.0,0.0,94,0.00,,CLR,0.00,VWS V12.07,2013-08-15 04:11:00,
2013-08-14 23:12:00,49.8,48.2,30.03,South,175,0.0,0.0,94,0.00,,CLR,0.00,VWS V12.07,2013-08-15 04:12:00,
2013-08-14 23:16:00,49.8,48.2,30.03,South,175,0.0,0.0,94,0.00,,CLR,0.00,VWS V12.07,2013-08-15 04:16:00,
2013-08-14 23:17:00,49.8,47.9,30.03,South,175,0.0,0.0,93,0.00,,CLR,0.00,VWS V12.07,2013-08-15 04:17:00,
2013-08-14 23:21:00,49.6,47.7,30.03,South,175,0.0,0.0,93,0.00,,CLR,0.00,VWS V12.07,2013-08-15 04:21:00,
2013-08-14 23:22:00,49.6,47.7,30.03,South,175,0.0,0.0,93,0.00,,CLR,0.00,VWS V12.07,2013-08-15 04:22:00,
2013-08-14 23:27:00,49.8,48.4,30.03,South,175,0.0,0.0,95,0.00,,CLR,0.00,VWS V12.07,2013-08-15 04:27:00,
2013-08-14 23:32:00,49.6,48.0,30.02,South,175,0.0,0.0,94,0.00,,,0.00,VWS V12.07,2013-08-15 04:32:00,
2013-08-14 23:33:00,49.6,48.0,30.02,South,175,0.0,0.0,94,0.00,,,0.00,VWS V12.07,2013-08-15 04:33:00,
2013-08-14 23:38:00,49.6,48.0,30.02,South,175,0.0,0.0,94,0.00,,,0.00,VWS V12.07,2013-08-15 04:38:00,
2013-08-14 23:43:00,49.6,48.0,30.02,South,175,0.0,0.0,94,0.00,,,0.00,VWS V12.07,2013-08-15 04:43:00,
2013-08-14 23:48:00,49.6,48.0,30.02,South,175,0.0,0.0,94,0.00,,,0.00,VWS V12.07,2013-08-15 04:48:00,
2013-08-14 23:49:00,49.6,47.7,30.02,South,175,0.0,0.0,93,0.00,,,0.00,VWS V12.07,2013-08-15 04:49:00,
2013-08-14 23:53:00,49.5,47.6,30.02,South,175,0.0,0.0,93,0.00,,,0.00,VWS V12.07,2013-08-15 04:53:00,
2013-08-14 23:54:00,49.4,47.5,30.02,South,175,0.0,0.0,93,0.00,,,0.00,VWS V12.07,2013-08-15 04:54:00,
2013-08-14 23:55:00,49.4,47.5,30.02,South,175,0.0,0.0,93,0.00,,,0.00,VWS V12.07,2013-08-15 04:55:00,
2013-08-14 23:58:00,49.2,47.3,30.02,South,175,0.0,0.0,93,0.00,,,0.00,VWS V12.07,2013-08-15 04:58:00,
2013-08-14 23:59:00,49.2,47.3,30.02,South,175,0.0,0.0,93,0.00,,,0.00,VWS V12.07,2013-08-15 04:59:00,